GEFSMW_500_meanwind_198.txt.gz
Wind_Speed
17 16 16 17 16 16 16 16 17 17 18 19 19 18 18 19 20 20 19 19 19 19 20 19 20 20 21 21 22 22 23 24 25 25 25 25 26 27 28 28 29 29 30
19 17 18 17 17 16 16 16 16 16 18 19 19 18 19 19 20 21 19 19 19 19 19 19 20 20 20 20 20 21 22 23 24 24 24 24 26 27 28 28 29 29 29
19 18 17 16 17 17 16 17 18 18 18 19 18 19 20 20 20 20 20 20 19 19 20 20 20 20 21 21 20 20 21 22 23 23 23 23 24 26 27 28 28 29 29
18 18 17 17 17 17 17 18 18 18 19 19 19 20 20 19 19 20 20 19 19 20 20 20 20 21 21 21 21 21 22 23 23 24 24 24 25 25 26 27 27 27 29
18 18 17 17 17 18 18 18 18 18 19 19 18 19 19 19 19 19 19 19 19 19 19 20 19 20 20 21 21 22 23 23 23 24 24 25 25 25 25 25 26 26 28
18 18 18 17 18 18 18 18 18 18 18 18 18 19 18 18 18 18 19 19 19 19 19 19 20 20 20 21 21 22 23 24 24 24 25 25 26 25 25 24 25 25 26
17 17 17 17 17 18 18 18 18 18 17 17 18 18 19 19 17 18 19 18 18 18 18 19 19 20 20 21 22 23 23 24 24 24 24 25 25 25 25 25 25 26 25
17 18 18 18 18 18 18 18 17 17 18 18 19 19 19 20 19 19 18 17 17 17 17 18 19 19 20 20 21 23 22 23 23 23 24 24 24 25 25 25 25 25 25
17 18 18 18 18 18 17 17 17 17 19 19 19 18 18 18 19 19 18 18 17 17 18 18 19 19 19 20 21 22 22 22 23 23 24 24 25 25 25 25 24 24 23
18 17 17 17 16 16 16 16 17 18 18 19 19 18 18 18 18 17 17 17 18 18 18 18 18 18 19 20 21 21 21 22 23 23 23 23 24 24 24 23 23 23 22
17 17 16 16 16 17 17 17 17 17 17 17 17 18 18 18 17 17 16 17 17 17 18 18 18 18 19 19 21 21 22 22 22 23 23 24 24 24 23 22 22 22 21
17 17 17 16 16 16 16 16 16 16 17 16 16 16 16 16 16 16 16 17 17 17 17 17 18 19 19 20 21 21 21 21 22 22 23 23 22 22 22 22 21 21 21
17 17 17 16 16 15 15 15 15 15 15 15 14 14 14 15 16 15 16 17 17 18 18 18 18 19 19 20 20 20 20 20 21 21 21 21 21 21 21 21 20 20 20
16 16 16 16 15 15 15 15 14 14 14 13 13 14 14 14 14 14 15 16 17 17 17 16 16 17 19 18 18 19 19 20 21 20 20 20 20 20 19 19 19 19 19
14 14 14 15 15 14 14 14 14 14 13 12 13 13 13 12 13 14 14 15 15 15 15 15 16 17 17 17 17 17 18 19 19 19 20 19 19 19 19 19 19 19 19
15 15 15 14 13 12 12 12 13 13 11 12 12 12 11 11 12 12 13 13 14 14 15 15 16 16 17 16 17 17 17 18 19 19 20 20 20 19 19 18 18 18 18
14 14 13 13 12 11 11 11 11 11 11 10 10 10 10 10 11 11 12 13 14 14 14 14 14 15 16 16 16 17 18 19 19 19 20 19 19 19 19 19 19 19 19
12 11 11 11 10 10 10 10 11 10 10 10 10 10 10 11 11 11 12 13 13 13 13 13 13 14 15 16 16 17 19 19 19 19 19 19 20 20 19 19 19 20 20
9 8 8 9 9 10 9 9 10 10 10 10 10 10 10 9 10 11 12 12 12 13 12 13 13 14 15 16 16 17 19 19 19 19 20 20 20 20 21 20 20 20 20
7 6 7 8 8 8 8 8 9 9 9 10 9 9 9 9 10 10 11 11 12 12 13 13 14 14 15 16 17 18 19 19 19 19 20 21 21 22 22 22 21 21 20
6 6 6 7 7 7 7 8 8 8 9 9 9 9 8 8 9 10 10 11 11 12 12 13 14 15 16 16 17 18 19 19 19 20 21 21 21 22 22 22 22 22 22
5 5 5 6 6 6 7 7 8 8 8 8 8 7 7 8 9 9 10 10 11 11 12 13 14 15 16 16 17 18 19 20 20 21 21 21 22 23 23 23 24 24 24
4 5 4 4 5 5 6 6 7 7 7 7 6 6 7 8 9 9 9 10 11 11 12 13 13 15 17 17 18 19 20 20 20 21 22 23 24 24 24 25 25 26 26
4 4 4 4 4 4 4 4 5 5 5 5 5 5 6 7 8 8 9 10 10 11 12 13 15 16 17 18 18 20 21 21 21 22 23 24 24 25 26 26 26 27 26
3 3 3 3 3 3 4 4 5 5 4 4 5 5 5 7 8 8 9 10 11 12 13 14 16 17 18 19 20 21 21 21 23 24 25 25 26 26 27 27 27 28 27
2 3 3 2 2 3 4 4 4 4 4 4 5 5 6 7 8 9 10 11 12 13 14 15 17 18 19 20 21 22 22 23 24 25 26 26 27 27 27 28 29 28 28

GEFSMW_500_meanwind_204.txt.gz
Wind_Speed
19 19 19 18 19 19 19 20 18 19 19 19 19 19 18 19 19 19 19 18 17 17 17 17 18 18 19 19 20 20 20 20 21 21 21 22 22 23 24 25 26 27 27
19 19 20 20 20 19 18 18 19 19 20 20 19 19 19 19 19 19 18 18 18 17 17 18 18 18 19 20 20 20 20 21 21 21 22 22 23 24 24 26 26 27 27
19 18 19 19 20 19 18 18 19 20 20 19 19 19 19 18 19 19 19 19 18 17 17 18 18 19 20 20 20 20 20 21 21 22 22 23 23 24 25 25 26 26 27
18 18 19 18 19 18 18 18 18 19 20 19 19 19 20 20 20 20 20 19 18 18 18 19 19 19 20 20 20 21 21 22 22 22 23 23 24 24 24 25 26 26 26
17 17 17 17 17 17 18 19 20 20 19 19 19 20 21 21 21 20 19 18 18 18 18 19 20 20 20 20 20 21 22 22 23 23 24 24 24 24 24 24 25 26 26
16 16 17 16 16 17 18 18 19 19 20 19 19 20 21 21 21 19 18 18 18 18 19 20 20 20 21 21 21 22 21 22 23 23 24 24 25 24 24 24 25 26 26
16 17 18 18 18 18 18 19 19 20 20 19 19 20 20 20 20 19 18 18 18 19 20 20 20 20 21 21 22 21 21 22 22 23 24 24 25 24 24 24 24 25 25
16 17 18 19 19 19 19 19 19 19 19 19 19 19 19 19 20 19 19 19 19 19 19 20 20 20 20 21 21 22 21 22 22 23 24 24 25 24 24 24 24 24 24
17 17 18 19 19 19 19 18 18 19 19 19 19 19 19 18 18 18 18 19 19 20 20 20 20 20 20 21 21 21 22 23 23 23 23 24 24 24 24 24 24 24 23
17 17 18 18 18 18 18 19 19 18 19 19 19 19 19 18 17 16 16 18 19 20 20 20 20 21 21 21 21 21 22 23 23 23 23 24 24 23 23 23 24 23 23
16 16 17 16 16 16 17 18 18 18 18 18 18 18 17 16 15 16 17 18 18 20 20 20 19 20 20 20 21 21 22 22 23 23 23 23 23 22 22 23 23 23 23
16 16 16 15 15 15 16 17 17 17 17 16 16 16 15 15 15 16 17 17 18 19 19 19 19 18 18 19 19 20 21 21 22 22 22 22 22 22 21 22 22 23 22
15 15 15 16 16 16 16 16 16 16 15 15 14 14 13 14 14 15 16 17 17 17 18 17 17 18 17 17 17 18 20 20 21 21 22 21 22 21 21 22 22 23 22
14 14 15 15 15 15 15 15 15 15 14 14 14 13 14 14 14 14 14 14 15 16 16 17 17 17 17 17 17 18 20 20 20 21 21 22 22 22 22 22 23 23 23
13 14 14 14 14 15 14 14 14 14 14 13 13 13 13 14 14 14 13 13 14 15 15 16 15 15 16 16 16 18 19 19 20 21 22 22 22 22 22 23 23 23 23
13 12 12 13 13 12 12 12 12 12 12 12 11 12 13 13 13 13 13 13 14 15 14 14 14 15 15 16 17 18 18 19 20 21 21 21 21 22 22 22 22 22 23
11 10 11 11 11 11 10 10 10 10 10 10 10 11 11 11 11 11 11 12 13 13 13 13 14 15 16 16 17 18 18 19 20 21 21 22 22 22 22 22 22 23 23
9 8 8 8 8 9 8 8 8 9 9 10 10 11 10 10 10 9 10 11 12 13 14 14 15 16 16 17 18 18 19 19 20 21 22 22 22 23 23 23 23 24 24
7 6 6 6 6 5 5 6 6 7 8 9 9 10 9 9 8 9 10 11 12 13 13 14 15 16 17 18 18 19 19 19 20 21 21 22 23 23 23 23 24 24 25
4 4 5 4 4 4 4 5 6 6 6 7 7 8 8 8 8 9 9 10 11 12 13 13 15 16 17 17 18 19 19 20 20 21 21 22 23 23 24 24 25 25 25
4 4 4 4 4 4 4 4 5 5 5 6 6 6 6 7 8 8 9 10 11 12 13 14 15 16 17 18 19 19 19 19 20 20 21 22 23 23 24 25 26 26 25
4 3 3 3 2 2 3 3 4 4 4 5 5 5 6 6 7 9 10 11 12 12 13 14 16 17 17 18 19 19 20 21 21 22 22 23 24 25 26 26 26 26 25
3 3 3 2 1 1 2 2 3 3 3 3 4 5 6 6 7 9 9 10 11 12 14 15 16 17 18 18 19 20 21 22 22 22 23 24 25 25 26 26 26 25 25
2 2 2 1 1 1 1 2 2 3 3 3 4 5 5 7 8 9 9 10 11 13 14 15 16 16 17 18 19 19 21 22 22 23 23 24 25 26 26 26 26 26 26
2 2 1 1 1 0 1 2 2 2 3 4 4 5 6 8 8 9 10 11 12 13 14 15 16 17 17 18 19 21 22 22 23 24 25 25 26 27 27 27 27 26 26
2 2 1 1 1 1 1 2 3 2 3 4 5 6 7 8 8 9 10 11 12 13 14 16 17 17 17 19 20 22 23 24 25 26 26 27 27 27 27 27 26 26 26

GEFSMW_500_meanwind_210.txt.gz
Wind_Speed
20 21 22 22 21 20 20 21 21 20 20 20 21 21 21 21 21 20 21 21 21 21 21 20 20 20 19 19 19 20 20 20 20 20 20 20 21 20 21 21 21 22 23
20 19 20 21 22 22 21 21 20 20 21 20 20 21 21 21 21 21 21 20 21 21 20 19 20 19 19 19 19 19 20 20 20 20 20 21 20 21 21 21 22 23 23
20 20 20 20 20 20 21 21 20 20 20 20 20 21 19 19 19 19 20 20 20 20 20 19 20 20 20 20 19 20 20 20 20 21 21 21 21 21 22 22 23 23 24
20 19 19 19 19 20 20 20 20 20 20 19 19 19 18 18 19 20 20 20 21 21 20 21 22 21 20 20 20 21 21 21 21 22 22 22 22 22 22 23 23 24 24
20 19 20 19 19 20 20 19 20 20 20 19 19 19 19 19 19 20 20 21 22 22 21 22 21 20 20 19 20 21 21 22 23 23 23 23 23 23 23 23 23 24 24
22 21 21 20 20 19 20 19 19 19 20 20 20 20 20 19 20 20 21 21 21 22 22 22 21 21 20 20 20 21 22 22 23 23 23 23 23 24 23 24 24 25 25
21 22 21 20 20 18 19 18 18 20 20 20 20 20 20 20 20 21 21 21 21 21 22 21 20 21 21 21 22 22 23 23 23 23 23 23 23 24 24 24 24 24 25
19 20 19 18 17 17 18 18 18 19 19 19 19 19 19 20 21 20 20 20 21 21 22 21 21 21 22 22 23 23 23 23 23 23 23 23 24 25 24 24 24 24 24
19 19 18 18 17 17 17 17 18 18 17 17 17 18 19 19 18 19 19 20 21 21 21 21 21 22 22 22 23 23 23 23 23 23 23 24 24 25 25 25 26 25 25
19 19 18 18 18 17 16 16 16 17 17 17 17 17 18 18 18 19 19 20 20 20 20 20 20 21 22 22 23 22 22 22 22 22 23 24 25 25 25 25 25 26 26
18 17 16 16 17 17 16 17 17 17 17 17 17 17 17 17 18 18 18 19 19 19 18 18 19 19 21 22 21 21 21 22 22 23 23 24 24 25 26 26 26 27 27
16 16 16 16 16 16 16 16 16 17 17 16 16 16 16 16 17 17 17 17 17 17 17 18 18 19 20 20 20 20 21 22 22 23 24 24 24 25 26 26 27 27 27
15 15 15 15 15 15 15 15 15 15 15 16 16 15 15 16 17 17 16 16 16 16 17 17 18 18 19 20 20 20 21 22 23 24 24 25 25 25 26 27 27 27 27
16 14 13 13 13 14 14 14 14 14 14 14 14 15 15 15 16 16 15 15 15 16 17 17 17 18 19 19 20 20 21 22 23 23 24 24 25 25 26 27 27 27 27
14 13 13 13 14 14 14 14 14 13 13 13 13 14 14 15 14 14 14 14 14 14 16 17 17 18 18 19 20 21 21 22 22 23 24 24 25 26 27 28 28 27 27
14 14 14 14 14 13 13 13 12 12 12 12 13 13 14 14 13 12 12 13 13 14 15 16 16 18 18 19 20 20 21 22 23 23 23 24 25 26 27 28 27 27 27
13 13 13 12 11 11 10 10 11 12 11 11 12 12 12 12 12 12 12 12 12 13 14 15 16 17 18 18 19 19 20 21 22 22 23 24 26 26 26 26 26 27 27
13 12 11 10 9 9 9 8 9 9 9 10 10 10 11 11 11 10 10 11 12 13 14 15 16 17 17 18 19 20 20 21 22 23 24 25 25 26 26 26 26 26 26
12 10 9 8 8 7 7 7 7 7 7 8 8 9 10 9 8 8 9 11 12 13 14 14 16 16 18 19 20 20 21 22 23 24 25 26 27 27 26 26 25 25 25
10 9 8 7 7 6 6 5 5 6 6 7 7 8 8 7 7 8 9 10 12 13 14 15 16 16 18 19 20 20 21 22 23 25 26 26 27 26 26 25 25 25 26
9 8 6 6 6 6 5 5 5 6 6 6 6 6 7 7 7 8 9 10 12 13 14 15 16 17 18 19 20 21 22 23 24 25 26 26 26 26 26 26 26 27 27
8 8 7 6 6 5 5 4 5 5 5 5 6 6 7 7 8 9 9 10 12 13 15 16 17 18 19 19 20 21 22 23 24 26 26 27 26 26 26 26 27 28 29
7 6 6 6 5 5 5 5 5 5 5 5 6 7 7 8 9 10 11 11 13 14 15 16 17 18 19 20 21 22 23 24 25 26 27 26 26 26 26 27 27 29 29
7 6 5 5 5 5 5 4 5 5 5 5 6 7 7 8 9 10 11 12 13 14 15 17 17 18 19 20 22 23 24 25 26 26 26 26 26 27 28 27 28 29 30
7 6 6 5 5 5 4 4 4 4 5 5 6 7 8 9 9 10 11 12 13 14 16 17 18 18 19 21 23 24 25 26 26 27 27 27 27 28 28 28 29 29 29
6 6 6 5 4 4 4 4 4 4 5 6 6 7 8 9 9 10 11 12 14 15 17 18 19 19 20 22 23 24 26 26 27 27 28 28 28 28 29 29 30 31 31

GEFSMW_500_meanwind_216.txt.gz
Wind_Speed
19 19 19 19 18 19 20 19 18 18 19 18 18 17 17 17 17 16 15 16 16 16 16 16 15 15 15 16 16 17 17 17 18 18 18 18 18 18 18 18 18 19 19
20 19 18 18 18 18 18 18 19 19 18 17 18 17 16 16 16 15 15 16 16 16 16 16 16 15 16 17 17 17 18 18 18 19 19 19 19 19 19 19 20 20 21
18 19 19 19 20 20 19 18 18 18 17 17 17 16 15 15 15 15 15 16 16 15 15 16 16 17 17 18 18 18 18 19 19 19 19 19 20 20 20 21 21 22 22
17 17 18 19 19 19 19 18 18 18 17 17 16 15 15 15 14 15 15 15 16 16 16 17 17 18 18 18 19 19 19 19 20 20 20 20 21 21 21 21 22 23 24
18 18 19 19 19 20 18 17 17 17 18 17 16 15 16 16 15 15 15 16 16 17 18 18 18 19 20 20 20 20 20 21 21 21 21 21 22 22 22 22 23 24 24
18 18 18 18 18 18 18 18 18 17 17 17 16 16 16 16 16 16 16 17 17 17 18 19 19 19 20 21 21 20 20 21 21 21 21 21 22 23 24 24 24 24 25
17 17 17 17 16 16 17 17 17 16 17 17 17 18 17 16 16 17 18 18 17 18 18 19 19 19 19 19 19 19 19 20 20 21 21 22 23 23 24 24 24 25 26
17 15 16 16 16 16 16 15 16 16 17 17 17 17 17 17 17 18 18 17 17 18 18 19 19 19 19 19 19 18 19 20 21 21 22 23 23 23 24 24 25 25 26
18 17 15 16 15 15 14 14 15 16 17 17 17 17 16 16 16 16 17 17 17 18 19 18 18 18 18 19 18 19 19 20 21 22 23 23 23 24 24 25 26 26 26
16 15 13 14 13 14 14 14 14 13 15 15 15 15 16 16 16 17 16 16 16 17 17 17 18 17 18 18 18 19 20 20 21 22 23 23 23 24 25 26 26 26 27
14 14 12 12 11 11 11 12 12 11 13 12 12 13 14 14 15 16 16 15 15 16 16 17 17 17 17 18 19 20 20 20 21 21 22 23 24 25 25 26 26 26 27
15 13 11 12 11 10 10 10 10 10 10 10 10 11 12 12 13 13 14 15 16 15 15 16 16 16 17 18 18 19 19 19 20 21 22 22 23 24 24 25 25 26 26
12 11 10 10 10 10 9 9 9 9 10 10 10 11 10 10 11 12 12 13 13 14 14 14 14 15 16 17 17 17 18 19 20 21 21 22 23 24 24 25 25 26 27
12 10 9 9 9 9 9 9 9 9 9 9 9 9 9 10 10 10 11 11 11 12 13 13 14 15 15 15 16 17 17 18 19 21 22 23 23 24 24 24 25 26 27
11 10 10 10 8 8 8 8 7 7 8 8 8 8 8 9 10 10 10 10 11 11 12 13 14 15 15 15 16 17 18 18 19 20 21 22 23 23 23 24 24 26 26
11 10 10 9 9 8 6 6 7 7 8 8 8 9 9 9 9 10 10 10 11 11 12 13 14 14 15 15 15 16 17 17 18 19 20 21 22 22 23 24 24 25 25
10 9 9 9 8 7 6 6 7 7 8 8 8 9 9 9 9 10 9 9 10 11 11 12 12 13 14 15 15 16 16 17 18 19 20 21 22 22 23 24 24 25 25
10 9 10 9 8 8 6 5 6 6 7 7 7 8 8 8 8 8 8 8 9 10 10 11 12 12 13 14 15 16 16 17 18 19 21 21 22 23 23 24 25 26 26
10 9 9 9 8 7 6 5 4 5 5 5 6 6 6 7 7 7 7 8 9 9 9 11 11 12 13 14 15 15 16 18 20 21 22 23 23 24 25 25 26 27 27
10 9 9 8 8 7 6 5 4 4 4 4 4 4 5 5 5 6 6 7 8 8 9 11 12 13 14 15 16 17 17 19 21 22 23 25 25 25 26 26 27 28 28
9 9 9 9 8 7 6 6 5 4 3 3 3 3 4 4 5 5 6 7 8 9 10 11 13 13 14 15 17 18 18 20 22 23 24 25 25 26 27 28 29 30 30
9 9 9 9 8 7 7 6 6 5 4 3 4 4 5 5 5 5 6 7 8 9 10 12 13 14 15 16 18 18 19 21 22 23 24 25 26 27 28 29 30 31 30
8 8 9 8 8 7 7 6 6 5 5 4 4 5 6 6 6 6 6 7 8 9 10 12 13 15 16 18 19 20 20 21 22 23 24 25 27 28 29 30 30 31 31
8 8 8 8 8 7 6 6 5 5 5 4 4 5 6 6 6 6 7 8 8 9 11 12 14 15 17 18 19 20 20 22 23 24 25 26 27 29 30 31 31 32 32
7 7 8 8 8 7 6 5 5 5 5 5 5 5 6 6 6 7 7 8 8 10 12 13 15 16 17 19 20 20 21 22 24 25 26 28 29 30 31 32 32 33 32
7 6 7 7 7 7 7 5 5 5 6 6 6 6 6 6 7 7 7 8 9 11 13 14 16 18 19 21 22 22 22 23 25 26 28 29 30 31 32 32 33 33 32

GEFSMW_500_meanwind_222.txt.gz
Wind_Speed
18 17 17 17 17 18 18 18 18 18 17 17 18 19 19 19 18 19 19 17 18 17 17 17 16 17 18 17 18 19 19 19 19 19 20 20 20 21 22 22 23 23 23
18 18 17 17 17 18 18 19 19 19 18 19 19 19 19 19 19 18 17 18 17 16 15 16 16 17 17 17 17 19 20 21 21 21 21 20 21 22 22 23 24 24 24
19 19 18 17 18 19 19 20 20 20 19 19 19 19 19 19 19 19 18 18 17 16 16 16 17 17 17 18 18 20 20 21 21 20 21 21 21 21 22 23 24 24 24
20 20 19 18 19 21 20 21 21 20 20 20 19 18 19 19 19 19 18 18 17 16 17 17 16 17 18 19 20 20 21 21 21 21 21 22 22 22 22 23 24 24 25
18 18 18 19 20 21 21 21 22 22 21 20 20 20 19 18 19 19 18 17 16 17 17 16 17 17 18 19 19 20 20 21 21 21 22 23 23 23 23 24 24 25 25
18 18 18 18 18 19 19 20 22 21 20 19 20 20 18 17 18 17 17 16 16 17 17 18 18 18 19 19 20 21 21 22 21 21 22 23 23 24 24 25 25 25 26
18 19 19 19 19 18 18 18 18 18 18 18 18 17 18 18 18 17 17 17 16 16 18 19 19 19 19 20 20 21 21 21 21 22 23 23 24 25 25 25 25 25 26
17 18 19 18 18 18 17 17 16 15 16 17 17 17 18 18 18 18 17 17 17 17 18 19 19 19 20 20 21 21 21 21 22 22 23 23 24 26 26 26 26 26 27
16 17 17 17 17 17 17 16 15 14 15 15 15 15 16 16 16 16 16 17 17 17 18 19 19 19 20 21 21 20 20 20 21 23 23 23 24 26 27 27 27 27 27
15 15 15 16 16 16 16 15 14 14 14 13 13 14 14 14 15 15 15 16 17 17 18 18 19 19 20 20 20 20 21 22 23 23 24 24 25 26 26 27 27 28 28
14 14 15 15 14 15 15 15 14 13 12 12 13 14 13 13 14 14 14 15 16 16 17 18 18 19 20 20 20 21 22 22 23 24 24 24 25 26 26 26 26 27 28
13 14 14 13 13 13 14 13 13 13 12 12 12 12 11 12 13 13 14 14 14 15 16 17 18 18 19 19 19 20 21 22 22 23 24 24 24 25 25 26 27 28 28
14 14 14 13 13 13 12 11 11 12 11 11 11 10 10 10 10 10 11 12 13 14 15 16 16 16 17 17 18 20 20 21 21 22 23 24 24 24 25 26 27 28 29
13 13 13 11 11 10 10 10 9 9 9 8 8 8 8 8 9 10 11 12 13 14 14 14 14 14 15 16 17 18 19 19 20 21 22 23 23 24 25 26 27 28 29
12 11 10 10 9 9 8 8 8 7 7 6 6 7 7 7 8 9 11 12 12 12 12 12 12 13 14 16 16 17 18 19 20 21 22 23 23 24 24 26 27 29 29
11 10 10 9 9 8 8 8 7 6 6 5 6 6 7 7 8 9 10 11 10 11 11 11 11 13 15 16 16 17 18 19 20 21 22 23 24 24 25 27 29 29 29
11 11 9 9 8 8 8 8 8 7 6 6 6 6 6 7 7 8 9 10 9 10 10 10 12 13 14 16 16 17 18 19 20 21 22 23 24 25 27 28 29 29 29
10 10 9 9 8 8 8 7 7 7 6 6 6 6 6 7 8 9 9 10 10 10 10 11 12 14 15 15 16 17 18 19 21 22 23 24 25 25 27 28 29 29 29
10 10 10 9 8 7 8 7 7 7 7 7 7 7 7 7 8 8 9 9 10 10 11 11 13 14 15 16 16 17 18 19 21 22 24 25 26 27 28 28 29 29 29
10 10 10 9 8 8 8 8 7 6 6 6 7 7 7 7 7 8 8 9 9 10 10 11 13 15 15 16 17 17 18 20 21 23 25 26 27 28 29 29 30 29 30
10 10 10 9 8 8 8 8 7 6 6 7 7 6 6 6 7 7 8 8 9 10 11 12 13 15 15 16 17 18 18 20 21 23 25 27 28 29 30 30 31 31 30
9 9 9 8 8 7 7 7 7 6 6 6 6 6 6 7 7 8 8 8 9 10 12 13 14 15 16 17 18 19 20 21 22 24 26 28 29 30 31 31 31 31 31
8 8 9 8 8 7 7 7 7 7 7 6 6 6 6 7 8 8 8 9 10 11 12 14 15 17 18 18 18 20 21 22 24 25 27 28 30 31 32 32 31 31 30
8 8 8 9 9 8 7 7 7 7 7 6 7 7 7 8 8 9 9 9 10 11 13 14 16 17 18 19 19 20 21 23 24 26 27 29 30 31 32 32 31 31 30
8 8 9 8 8 8 8 7 8 8 7 7 7 7 7 8 8 9 9 10 11 12 13 15 16 17 18 19 20 21 22 24 25 26 28 29 31 32 32 32 32 31 30
8 8 8 8 8 8 8 8 8 8 7 7 7 7 8 8 9 9 10 11 12 13 15 16 18 18 19 20 21 22 23 25 26 28 29 30 31 32 32 32 32 31 31

GEFSMW_500_meanwind_228.txt.gz
Wind_Speed
19 19 18 18 18 19 18 18 19 19 19 19 19 19 18 18 18 18 18 19 20 20 21 20 20 20 20 19 19 19 19 19 19 19 19 19 20 19 20 21 21 22 23
18 17 17 18 19 20 19 20 20 19 18 18 18 18 18 19 20 19 19 20 20 20 21 19 19 19 18 18 18 19 18 18 18 19 20 20 20 21 21 22 23 24 24
18 19 18 19 20 19 19 19 18 18 18 18 19 20 20 20 20 20 20 20 20 20 20 19 19 18 18 18 19 18 18 17 18 19 20 21 21 21 22 23 24 24 25
18 18 19 19 19 19 18 18 18 18 19 19 20 20 20 21 20 20 20 20 20 20 21 20 19 18 18 18 18 18 17 18 19 20 21 22 22 23 24 24 25 25 25
16 17 18 19 19 18 18 18 18 18 19 19 19 20 20 20 20 20 19 20 20 19 19 19 19 19 18 17 17 17 18 19 19 20 21 22 23 24 24 25 25 26 26
15 16 17 17 18 18 18 18 18 18 18 18 19 19 19 18 19 19 18 19 19 18 18 18 18 18 17 16 17 17 18 19 20 21 21 22 23 23 24 25 25 26 26
14 15 16 16 17 18 18 18 18 17 17 18 18 18 17 17 17 17 18 19 19 18 18 18 18 18 17 17 18 18 19 19 20 20 20 22 23 24 25 25 26 27 27
15 15 15 15 16 16 16 16 16 16 16 16 16 16 16 16 17 17 17 17 17 18 18 18 18 17 17 17 18 19 19 19 20 20 21 23 23 25 26 26 26 27 28
14 14 14 14 14 14 13 13 13 14 14 15 14 15 15 16 17 16 16 16 17 16 17 17 16 16 17 18 19 19 18 18 19 21 21 23 24 25 26 26 27 27 28
12 12 12 13 13 13 12 12 12 12 13 13 13 13 14 15 14 15 14 15 16 16 15 15 15 16 16 17 18 18 18 19 20 20 21 22 24 25 25 26 27 27 28
12 12 12 12 13 13 12 12 12 12 12 12 11 11 12 11 11 12 13 13 13 13 13 14 14 15 16 16 17 17 18 19 19 20 22 22 23 24 25 26 26 27 28
12 12 13 13 12 12 13 13 12 12 12 11 11 10 10 10 10 10 10 11 12 13 13 13 13 15 16 17 17 17 18 19 20 20 21 22 23 24 25 25 26 27 28
12 13 13 12 12 11 11 11 10 10 10 10 9 9 9 8 8 9 9 10 10 10 11 12 13 14 16 16 17 17 18 18 19 21 22 23 23 23 25 25 25 27 28
11 13 13 11 11 10 9 9 9 9 8 8 8 7 7 7 7 7 7 7 8 9 10 12 13 14 15 16 16 16 16 17 19 20 21 23 23 24 24 25 26 27 28
11 12 11 11 10 9 9 8 8 7 7 6 6 6 6 6 6 5 6 7 8 9 10 11 12 13 13 14 15 15 16 17 18 19 20 21 22 23 25 25 26 27 28
12 12 11 11 10 8 8 8 7 6 6 6 6 6 5 4 4 5 6 7 8 9 9 10 11 11 12 12 13 15 16 17 18 19 20 21 22 23 24 25 27 28 28
11 11 10 10 9 8 7 6 6 5 5 5 5 5 4 4 5 5 6 8 8 9 9 10 11 12 13 13 14 15 15 16 17 18 19 21 23 24 25 26 27 28 28
10 10 9 9 9 7 7 5 5 5 4 4 4 5 4 5 6 7 8 8 8 9 9 10 11 12 12 13 14 15 15 16 17 18 20 21 23 24 25 26 27 28 28
10 9 9 8 8 7 7 6 6 5 5 5 5 5 5 5 6 7 8 8 7 8 9 10 10 11 12 13 14 14 15 16 17 18 19 21 24 25 26 26 27 27 27
9 9 8 8 7 7 7 6 6 5 5 5 5 5 5 6 7 8 8 7 7 8 9 10 11 13 13 14 14 15 16 17 18 19 20 22 24 25 26 26 26 27 27
8 8 7 7 7 7 6 6 6 5 4 5 5 5 5 6 7 7 7 7 8 9 10 11 12 13 13 14 15 16 17 18 18 20 21 22 24 25 25 26 26 26 26
7 7 7 6 6 6 6 6 6 6 6 6 6 6 6 7 7 8 7 8 8 10 10 11 12 14 14 14 15 16 17 18 19 20 21 23 24 25 25 26 26 26 26
7 7 7 6 6 6 6 6 6 6 6 6 6 6 7 7 8 8 8 8 9 10 11 12 13 14 15 16 16 17 18 19 20 20 21 23 24 25 25 25 25 26 26
7 7 7 7 6 6 6 6 6 6 7 7 7 7 7 8 8 8 9 9 10 11 12 13 15 16 16 17 17 18 19 20 20 20 22 23 24 25 25 24 25 26 26
8 7 6 6 6 6 6 6 6 6 7 7 7 8 8 9 10 10 11 11 12 12 13 15 15 16 18 18 18 19 20 21 22 22 23 24 25 25 24 24 25 26 26
7 7 6 6 6 6 6 6 6 7 8 8 8 9 9 9 10 11 12 12 13 13 14 15 17 17 18 19 19 19 21 22 23 23 24 24 25 25 24 24 25 26 26

GEFSMW_500_meanwind_234.txt.gz
Wind_Speed
20 18 18 18 18 18 17 17 17 18 18 19 19 19 20 19 19 19 19 18 18 19 18 18 19 18 17 17 17 17 18 18 19 19 19 18 18 18 18 18 19 19 20
20 18 17 17 17 17 17 17 17 18 18 18 19 19 19 19 19 19 19 19 19 19 19 18 18 18 18 18 18 18 18 19 19 20 20 19 19 18 19 19 19 20 21
18 18 17 17 17 16 17 18 17 18 17 18 19 19 19 19 19 18 19 19 19 19 19 18 17 17 18 17 18 18 17 18 19 19 20 20 19 19 19 20 21 22 22
18 17 16 16 16 16 17 17 17 17 18 18 19 20 19 19 19 18 18 18 19 18 18 18 18 18 18 18 18 18 18 19 19 19 20 21 20 20 20 21 22 22 23
17 17 16 16 16 16 16 16 17 18 19 20 21 20 19 18 18 18 18 18 18 18 18 18 18 18 18 18 18 19 19 19 20 20 20 20 21 21 21 21 22 23 23
17 16 15 15 16 15 14 16 18 18 20 20 19 19 18 18 17 17 18 18 18 18 18 17 17 18 19 19 19 19 20 20 20 20 20 20 21 22 22 23 23 24 24
16 15 14 14 15 15 15 16 16 17 17 17 17 18 18 18 17 17 17 17 17 17 17 17 17 18 19 19 19 19 20 20 20 20 21 21 22 23 23 23 24 25 26
14 13 14 14 15 15 15 15 15 15 15 15 16 16 16 17 17 16 16 16 15 15 16 16 17 18 18 19 19 20 19 19 19 21 22 22 22 23 24 25 26 27 28
13 13 14 14 14 14 14 14 14 14 14 15 15 15 15 16 16 16 14 13 13 13 14 15 16 17 17 18 18 18 18 19 19 20 21 22 23 24 25 26 27 29 29
13 12 13 13 14 13 13 14 14 14 14 14 14 13 14 13 13 13 12 12 12 12 13 13 14 15 16 17 18 18 19 19 19 20 21 22 24 25 25 27 28 29 30
11 12 12 13 13 13 13 13 13 13 13 12 12 12 12 11 11 10 10 10 10 11 12 12 13 14 15 16 16 16 17 18 19 20 21 22 24 25 25 27 28 29 29
12 12 12 13 13 12 12 12 12 12 11 11 12 12 11 10 10 9 9 10 11 11 12 13 13 13 14 15 16 17 18 18 19 20 21 22 23 24 25 27 27 28 28
11 12 12 12 12 12 12 11 11 11 10 10 11 11 10 10 9 8 8 9 10 11 12 12 13 13 13 14 15 17 17 18 19 20 21 21 22 23 25 26 27 27 27
12 11 12 12 12 12 11 11 10 10 9 9 9 10 9 9 8 8 8 9 10 11 11 12 12 12 13 14 15 16 17 18 19 19 20 21 22 22 23 25 26 26 26
12 12 12 13 13 12 11 10 10 9 9 9 8 8 8 7 7 8 8 9 9 10 10 11 10 11 13 14 15 16 17 18 19 19 20 21 21 22 23 24 25 25 25
12 12 12 12 11 10 10 9 9 8 8 7 7 7 7 7 7 8 7 8 8 9 9 10 11 12 13 15 16 16 17 18 19 20 20 21 21 22 23 24 24 25 24
12 12 12 11 10 10 9 9 8 8 7 7 7 7 7 7 8 8 8 8 8 9 10 10 11 12 14 15 16 16 17 18 19 19 19 20 21 22 22 23 24 24 25
12 11 10 10 10 10 10 8 8 8 8 7 7 7 7 8 8 8 8 8 8 9 10 11 12 13 14 15 16 17 17 18 18 18 19 20 21 21 22 23 24 24 25
11 11 10 10 10 10 10 9 8 8 7 6 6 6 7 7 7 8 8 9 9 10 11 11 13 14 15 15 16 17 17 17 18 19 20 20 21 22 22 24 24 24 24
11 10 10 10 10 10 10 9 8 7 6 6 6 6 7 7 7 8 9 9 10 11 12 12 13 15 16 16 15 15 16 17 19 20 21 21 21 22 23 24 24 23 23
11 9 10 10 10 10 9 8 7 6 6 6 7 7 7 8 8 9 9 10 10 11 12 13 15 16 17 17 17 16 17 19 20 21 21 21 22 22 23 24 23 23 24
10 9 9 9 9 9 8 7 6 6 6 7 7 8 8 8 9 9 10 11 11 12 13 14 15 17 17 17 18 17 17 19 20 21 21 21 21 22 23 24 24 24 24
10 9 8 8 8 8 7 7 7 6 7 8 8 9 9 9 10 10 11 11 12 13 14 15 16 17 17 17 18 19 19 19 19 19 20 21 22 21 22 23 23 23 24
9 8 8 8 8 8 7 7 7 7 8 8 9 10 10 10 10 11 11 12 13 14 15 16 17 18 18 18 18 19 19 19 20 19 20 21 22 22 22 23 23 23 24
9 9 8 8 8 8 7 7 7 8 8 9 10 10 11 11 11 11 11 12 13 15 16 17 18 18 18 19 19 19 19 19 20 20 20 21 22 22 22 23 23 23 24
10 9 8 8 8 8 8 8 8 9 9 9 10 10 11 11 12 12 12 13 15 16 17 17 18 18 19 19 20 20 19 20 20 20 20 21 22 22 23 23 23 22 23

GEFSMW_500_meanwind_240.txt.gz
Wind_Speed
16 15 15 15 14 15 16 14 13 14 15 15 15 15 15 15 15 15 15 14 14 15 15 16 17 17 16 16 16 16 16 16 17 17 17 16 17 17 18 19 19 18 19
16 16 17 16 16 16 17 15 14 15 15 15 14 15 15 15 15 15 15 14 14 15 16 16 16 16 16 17 17 17 17 17 16 16 17 17 17 17 18 19 19 19 19
15 16 16 16 16 16 16 15 14 15 15 15 15 15 15 16 16 16 16 16 15 16 16 16 17 17 18 18 17 17 18 17 16 17 18 18 18 18 18 19 20 20 20
14 15 16 16 16 16 15 14 14 15 15 15 15 16 16 16 17 17 17 17 16 17 17 16 17 17 17 17 17 17 17 16 17 17 18 18 18 18 19 19 20 21 21
14 14 16 16 16 16 15 15 14 15 15 15 15 16 16 16 17 17 17 16 16 16 16 16 16 16 16 16 17 16 16 16 17 17 17 18 19 19 19 19 20 21 22
13 14 15 15 14 14 14 13 13 13 14 13 14 15 15 16 15 15 15 14 15 15 15 15 15 16 16 16 16 16 16 16 17 17 18 18 18 19 20 21 21 22 23
13 14 14 14 13 14 14 13 13 12 13 12 13 13 13 14 14 14 14 14 14 14 14 15 14 15 15 15 15 16 16 16 17 18 18 18 19 20 21 22 22 23 23
12 13 14 13 12 13 14 13 11 12 12 12 12 12 12 12 13 12 12 12 12 12 13 13 14 14 13 14 15 16 16 16 17 18 18 19 20 20 21 22 22 23 23
12 12 12 12 12 12 12 11 11 12 12 12 11 12 12 12 12 12 11 11 10 10 10 11 12 12 12 13 14 15 15 16 16 17 19 19 19 19 20 22 22 22 23
10 11 11 11 11 11 11 11 10 11 12 12 11 10 11 11 11 11 10 9 9 9 9 10 10 11 12 13 13 14 15 16 17 18 19 19 19 20 20 21 22 22 23
9 11 10 10 10 10 10 10 10 9 10 10 10 10 10 9 9 9 8 9 9 9 9 9 10 11 12 12 12 13 14 15 16 17 18 19 19 19 19 20 21 22 22
10 10 10 10 9 9 10 9 9 9 9 9 9 9 9 9 8 8 8 8 8 8 8 9 10 11 11 11 12 13 14 15 16 17 18 19 19 19 19 20 20 21 22
9 9 9 8 8 9 10 10 9 9 8 8 8 8 8 8 8 8 7 8 8 8 8 9 10 10 11 11 12 13 14 15 16 16 18 18 18 18 18 19 20 21 22
8 8 8 8 9 9 10 9 9 8 8 7 7 8 8 8 7 7 7 7 7 8 8 8 9 10 11 12 12 12 13 15 16 16 16 16 17 18 18 19 20 21 22
8 8 9 9 9 10 9 8 8 7 7 7 7 7 7 7 6 6 6 6 7 7 7 8 9 10 10 11 11 12 13 15 16 16 15 15 17 18 18 19 20 21 22
8 9 10 10 10 9 8 7 8 7 7 7 7 7 7 6 6 6 6 6 7 7 7 8 8 9 9 10 11 12 13 14 15 14 14 15 17 18 19 20 21 22 22
8 9 9 9 9 8 7 8 8 8 7 6 7 7 7 6 6 5 6 7 7 7 7 7 7 8 10 11 12 14 15 15 15 14 15 16 17 18 19 21 21 22 22
8 9 8 8 8 8 8 8 8 7 7 6 6 7 7 6 5 5 6 7 7 6 7 7 8 10 12 13 15 15 15 16 16 16 16 17 17 18 20 21 21 21 22
8 9 8 8 8 9 9 8 8 7 7 7 7 6 6 6 5 5 6 6 7 7 8 9 10 12 13 14 15 15 16 17 17 16 16 17 18 18 19 20 21 22 22
7 8 8 8 9 9 9 8 8 8 7 6 6 6 6 6 6 6 7 7 7 8 9 10 12 13 14 15 15 16 16 16 17 17 16 16 17 18 19 20 21 22 22
7 8 8 8 9 9 9 8 8 8 7 6 6 6 6 6 7 7 7 8 9 9 10 12 12 13 14 15 15 16 16 16 17 17 16 17 18 18 19 20 21 22 22
7 8 8 8 8 8 8 8 8 7 6 6 6 6 7 7 7 8 8 9 10 11 11 12 13 14 15 16 16 16 16 17 17 17 17 18 18 18 19 20 21 22 22
8 8 8 7 8 8 8 7 7 7 7 7 7 7 7 7 8 9 9 10 11 12 13 14 15 16 16 16 16 16 16 16 17 17 18 18 19 19 20 21 21 22 22
8 8 8 7 8 8 8 8 7 7 7 7 8 8 8 8 8 9 10 11 12 13 14 15 16 16 16 16 15 15 15 16 16 17 18 19 19 20 20 21 22 22 22
8 8 8 9 8 8 8 8 7 7 7 7 8 9 9 10 10 10 11 12 13 14 15 15 16 16 16 16 15 15 15 16 17 18 19 19 20 20 20 21 21 21 21
8 8 9 9 9 9 9 8 8 7 8 8 9 10 10 11 11 11 12 13 14 14 15 15 15 15 15 15 15 15 16 17 17 18 19 19 19 20 20 20 21 21 20

GEFSMW_500_meanwind_246.txt.gz
Wind_Speed
14 14 13 13 13 13 13 14 15 14 14 15 15 15 15 14 15 15 16 17 17 17 16 16 17 18 18 17 17 17 18 18 18 18 19 19 20 20 20 19 19 18 19
14 14 14 14 14 15 15 14 14 15 15 14 14 14 14 15 15 16 16 16 16 16 15 15 16 16 17 17 17 17 18 18 19 19 19 19 19 19 19 19 19 20 20
13 14 14 14 14 14 14 13 14 14 15 14 14 14 14 14 14 14 15 15 15 15 16 15 15 16 17 17 17 18 18 18 18 19 19 20 19 19 19 19 20 21 21
12 13 13 13 13 13 12 13 14 14 15 16 15 15 15 13 14 14 15 15 14 14 15 14 15 16 16 17 17 17 18 19 19 20 20 20 19 20 19 20 21 21 21
11 11 11 12 12 12 12 12 14 14 15 16 16 15 15 15 14 15 14 15 15 14 14 14 15 15 16 16 17 17 17 18 18 19 19 20 20 20 20 20 21 22 22
10 11 12 12 12 11 11 12 13 13 14 15 15 15 15 15 15 15 14 14 14 14 15 15 15 15 15 16 16 16 17 17 17 17 18 19 19 19 20 21 21 22 22
11 11 12 12 11 11 11 11 11 12 13 13 13 13 13 13 13 14 14 13 14 14 15 14 14 15 16 16 16 16 17 17 17 17 18 19 19 20 21 21 22 22 22
11 11 11 10 11 11 11 11 11 12 12 12 12 13 12 12 12 13 13 13 13 13 13 14 14 14 15 15 15 16 16 16 17 17 18 18 19 20 20 21 21 22 22
10 11 11 10 10 10 10 11 11 11 11 12 12 12 11 11 12 12 12 11 12 12 12 12 13 13 13 14 14 15 15 15 16 17 18 18 19 19 20 20 20 21 21
9 9 8 9 10 9 9 9 10 11 11 11 11 10 10 10 10 11 11 11 11 11 11 11 12 12 12 13 14 15 14 14 15 16 16 17 17 18 19 20 20 20 21
8 8 8 9 9 9 9 9 10 10 10 10 10 9 9 10 10 10 11 11 11 10 10 11 11 12 12 12 13 14 14 15 15 16 16 17 17 19 20 21 21 22 22
8 8 8 8 8 8 8 9 10 10 9 9 9 9 9 9 10 10 10 10 10 10 10 11 11 11 12 12 13 14 14 14 15 16 16 16 17 18 19 21 21 22 22
7 7 8 8 8 8 8 8 9 9 9 8 8 9 9 9 9 10 10 10 9 10 10 10 10 11 12 12 12 13 14 14 14 15 15 16 17 18 19 20 20 21 22
7 7 8 8 8 8 8 8 9 9 9 9 9 9 8 8 9 9 9 9 9 9 9 9 9 10 10 12 12 13 13 14 14 14 15 15 16 18 19 19 20 21 21
7 7 7 8 8 9 10 9 10 9 9 8 8 7 8 8 8 8 8 8 8 8 9 9 9 10 11 11 12 13 14 14 14 14 15 16 17 17 18 19 20 20 21
7 7 7 8 8 9 10 9 9 9 9 8 7 8 9 9 8 8 8 8 9 9 10 10 11 11 11 12 14 14 15 15 15 15 16 16 17 17 18 19 20 21 22
8 8 8 9 9 9 8 9 9 9 8 8 8 8 8 8 8 8 9 9 10 10 10 10 11 12 12 13 14 14 14 13 14 14 15 16 17 18 19 20 21 22 23
8 8 9 9 9 9 8 8 9 9 8 8 8 8 8 8 8 9 10 10 10 11 11 11 12 12 12 14 14 14 14 14 14 14 15 16 17 18 19 20 21 22 23
9 9 9 9 9 8 8 9 9 9 8 8 8 8 8 8 8 9 9 9 11 11 12 12 13 13 13 14 14 15 14 14 14 14 15 16 17 19 20 21 22 22 22
10 10 9 9 9 9 9 9 9 9 9 9 9 8 8 8 9 9 10 11 12 12 12 12 12 13 13 13 14 14 14 14 14 15 16 17 18 19 20 21 21 22 22
10 10 9 9 9 9 9 9 9 9 9 9 9 9 9 9 10 11 11 12 12 12 12 12 13 13 14 14 14 14 15 15 15 15 17 18 19 19 20 21 21 21 21
10 10 9 8 8 9 9 9 9 9 8 8 9 10 10 11 11 12 12 12 12 13 13 13 13 14 14 14 14 14 15 16 16 17 17 18 18 19 20 20 20 21 21
10 9 8 8 8 8 8 9 9 9 8 9 10 10 11 12 12 12 12 12 13 13 13 14 14 14 14 15 15 15 16 16 17 17 17 17 18 19 19 19 19 19 19
8 8 7 7 7 8 8 9 9 9 9 10 11 11 12 12 12 12 12 12 13 13 14 14 14 14 15 15 16 16 16 16 17 17 17 17 17 18 19 19 19 19 19
9 8 8 8 8 8 9 9 9 10 10 11 11 12 12 12 11 12 12 13 14 14 14 14 15 15 15 15 16 16 16 16 17 18 17 17 17 18 18 19 20 20 20
10 9 8 8 9 9 9 9 9 10 11 11 11 11 11 11 11 12 13 13 14 14 14 15 15 15 15 16 16 16 16 17 17 17 17 17 17 18 19 20 20 20 20

GEFSMW_500_meanwind_252.txt.gz
Wind_Speed
16 15 15 15 15 15 15 14 13 13 14 14 14 14 14 14 14 14 14 14 14 14 14 14 15 15 16 16 16 16 17 17 17 17 17 16 16 16 16 16 17 18 18
15 14 14 14 14 14 14 14 14 15 15 15 15 15 14 14 15 14 14 14 14 14 14 14 15 15 15 16 15 15 16 16 17 17 17 16 17 17 17 18 18 19 19
14 13 13 13 14 14 14 14 14 15 15 15 15 15 15 15 15 15 14 15 14 14 14 14 14 14 14 14 14 14 15 16 17 17 18 18 18 18 18 18 18 19 20
14 14 13 13 13 13 13 14 15 15 15 15 14 14 14 14 15 16 16 15 15 15 15 14 14 14 14 14 14 14 15 16 16 17 18 18 19 19 19 19 19 20 21
13 13 12 12 12 12 13 14 14 14 14 14 14 14 14 14 15 15 15 16 15 15 15 14 14 14 14 14 14 14 15 15 16 17 18 19 19 20 20 19 20 20 21
12 12 11 11 11 12 12 13 14 13 13 14 14 14 13 14 15 15 16 16 16 16 15 14 13 13 13 13 14 14 15 15 16 16 17 18 19 20 20 20 20 20 21
10 11 11 11 11 11 12 12 12 13 13 14 13 13 13 14 15 15 15 16 16 15 14 13 13 13 13 13 13 13 14 15 16 16 16 17 18 18 18 19 18 19 20
9 9 10 10 11 12 12 12 12 12 12 12 12 12 12 13 13 14 14 14 14 13 13 13 13 13 13 12 12 13 13 14 15 15 16 16 17 17 17 18 19 19 20
8 9 10 10 11 11 11 11 10 10 10 11 11 11 12 12 13 13 13 13 12 12 12 12 12 12 13 13 13 13 14 14 14 15 15 16 16 17 17 17 18 19 20
8 9 9 9 10 10 9 9 10 10 10 11 11 12 12 12 12 12 12 11 11 11 11 10 10 11 11 12 13 13 14 14 13 13 14 15 16 17 17 18 18 19 20
8 8 7 8 8 8 8 9 9 10 10 11 11 11 11 12 12 12 11 11 10 10 9 10 10 10 10 10 11 12 12 12 12 12 13 14 15 16 17 18 19 19 19
7 8 7 7 7 7 7 8 8 9 9 9 9 10 10 11 11 11 11 10 9 8 9 9 9 9 9 9 10 11 11 12 12 13 13 13 15 16 17 17 18 18 18
7 7 7 7 6 6 7 7 7 7 7 8 8 9 9 10 9 9 9 9 8 9 9 9 9 9 9 10 10 10 11 11 12 12 13 14 15 15 16 17 17 18 19
7 7 7 7 7 7 7 7 7 8 8 8 8 8 8 9 8 8 8 8 8 8 9 9 9 10 10 10 10 11 12 12 12 13 13 14 15 15 16 16 17 17 18
7 7 6 6 7 7 7 7 8 7 7 7 7 8 8 8 7 7 7 7 8 9 9 9 9 9 10 10 11 12 12 12 13 13 14 15 15 15 16 16 16 17 18
6 6 7 7 7 8 8 7 7 7 7 8 8 7 6 7 7 7 7 7 8 8 9 9 9 10 11 12 12 13 13 13 13 14 15 15 15 15 15 16 18 19 20
7 6 6 7 7 7 8 7 6 6 7 8 6 5 6 6 6 7 7 8 8 9 9 10 10 11 12 12 13 14 13 14 14 15 15 15 15 16 16 17 18 19 20
7 7 7 7 7 7 7 7 7 6 7 7 6 6 6 6 7 8 8 8 8 9 9 10 11 11 12 13 13 13 13 14 14 15 16 16 16 16 17 18 18 19 19
8 7 8 7 7 7 8 8 7 7 6 6 6 6 7 7 8 9 9 9 8 9 9 10 11 12 12 12 12 12 12 13 14 15 15 15 15 16 17 18 18 18 19
8 8 8 8 8 8 8 8 8 8 7 7 6 7 7 8 9 10 10 9 9 10 10 12 12 12 12 11 12 12 13 13 14 14 14 15 15 15 17 18 18 18 18
8 8 8 8 8 8 9 9 9 8 8 7 8 8 9 9 9 10 10 11 11 11 12 12 12 12 11 12 12 13 13 13 13 13 14 14 15 16 17 18 18 19 19
9 9 8 8 8 9 9 9 9 8 8 8 8 9 10 10 10 10 11 12 12 13 13 13 12 12 11 12 13 13 13 14 14 14 14 14 15 16 16 17 18 18 18
10 9 8 9 9 9 9 9 8 8 8 9 9 10 10 11 11 11 12 13 13 13 13 13 13 12 12 12 13 13 14 14 14 14 14 14 15 15 16 16 17 18 18
10 10 9 9 9 9 9 9 8 9 9 10 10 10 11 11 11 12 13 13 13 12 12 12 12 12 13 13 13 13 14 14 13 13 13 14 15 16 16 16 17 17 17
11 10 9 9 10 10 9 9 9 9 9 10 10 10 10 10 11 12 12 12 12 11 11 11 12 13 13 13 14 14 13 13 13 13 13 14 15 15 16 16 16 16 17
12 11 10 10 11 11 10 10 10 10 10 11 11 10 11 11 12 12 12 12 11 11 11 11 12 13 13 14 14 13 13 13 12 13 14 14 15 15 15 16 16 16 16

GEFSMW_500_meanwind_258.txt.gz
Wind_Speed
15 16 16 16 16 16 16 16 16 16 16 15 14 14 13 13 13 14 14 14 13 13 14 14 14 15 15 14 14 15 15 16 17 18 18 18 18 19 18 18 17 18 18
16 16 16 16 16 15 15 16 15 15 15 14 13 13 13 13 13 14 14 14 13 13 13 14 15 15 14 14 14 14 14 15 16 17 17 18 18 18 18 17 17 18 18
15 16 16 15 15 15 16 16 16 16 15 14 13 13 13 13 13 13 13 13 13 14 13 14 14 15 14 14 15 14 14 15 15 16 17 17 18 18 18 18 18 18 19
15 15 15 15 14 15 15 16 16 15 14 14 14 14 14 14 14 14 14 13 14 13 13 14 14 14 14 14 14 14 14 14 14 15 16 17 17 17 17 17 18 19 19
15 14 14 14 15 15 15 16 16 16 15 15 14 14 14 14 14 14 13 14 13 13 14 14 14 14 14 13 13 13 13 14 14 15 16 16 16 17 17 17 18 19 19
14 14 14 14 14 15 15 15 15 15 14 14 14 13 14 14 14 13 13 14 13 13 14 15 14 15 14 13 13 13 13 13 13 14 14 15 16 16 16 16 18 18 19
14 14 13 13 14 14 14 14 14 13 13 13 13 13 13 13 13 13 13 13 13 14 15 15 14 14 13 13 14 13 13 13 13 13 14 14 15 16 16 16 17 18 18
14 13 12 12 12 12 13 13 12 12 12 12 12 13 12 12 12 12 13 14 14 14 14 15 14 14 14 14 13 13 13 13 14 14 15 15 15 16 16 16 16 16 17
13 13 12 11 11 11 12 12 12 12 11 11 12 11 12 12 13 13 14 14 14 14 15 16 15 14 14 13 13 13 14 14 14 15 15 16 16 16 16 16 16 17 17
13 12 11 11 11 11 11 12 11 11 11 10 10 11 11 12 13 14 13 14 14 14 15 15 14 13 13 13 14 14 14 14 15 15 15 15 16 16 15 15 16 17 17
12 11 10 11 11 10 10 10 10 10 10 10 10 10 11 11 12 13 13 14 14 15 14 13 13 13 13 13 13 14 14 15 15 15 15 15 16 15 15 16 16 16 17
11 10 10 10 10 9 9 8 9 9 10 10 10 10 11 11 12 13 14 14 14 14 14 14 14 13 12 12 13 15 15 14 14 15 15 15 16 15 15 15 16 17 17
11 10 9 9 9 8 8 7 8 8 9 10 11 11 12 12 13 13 14 14 13 13 13 13 13 13 13 13 14 14 14 14 14 15 15 16 16 15 15 15 16 16 17
10 9 9 8 8 7 7 7 7 8 9 10 10 11 11 12 12 13 13 13 13 13 13 13 14 13 13 13 13 14 13 13 14 14 14 15 16 15 16 16 16 17 16
9 8 8 7 7 6 7 7 8 8 9 10 10 11 11 11 12 13 13 12 13 13 13 13 13 13 13 13 13 13 13 13 13 14 15 15 15 15 15 16 16 17 17
8 8 8 7 7 7 7 8 8 9 10 10 10 11 11 12 12 12 12 12 13 13 13 13 13 12 12 12 12 12 12 12 13 14 14 15 15 15 15 16 17 18 18
8 8 8 7 7 7 8 8 9 9 10 11 11 11 12 12 12 13 12 13 13 13 13 13 12 12 12 12 11 12 12 12 13 14 14 14 14 15 16 17 18 18 18
8 8 8 8 8 8 9 9 9 10 11 11 11 11 12 12 12 12 12 13 13 12 13 13 13 12 12 12 12 12 13 13 14 14 14 14 15 16 17 17 17 17 18
9 9 9 9 9 9 10 10 10 10 11 11 11 11 11 11 12 12 12 12 13 13 13 13 12 12 12 12 13 13 14 14 14 14 15 15 15 15 16 16 16 17 18
9 10 9 9 10 10 10 10 10 10 11 11 11 11 11 11 12 12 12 12 12 13 13 12 11 11 12 12 13 13 14 14 14 14 14 15 16 16 16 17 17 17 18
11 11 11 11 11 10 11 11 11 11 11 11 11 11 11 12 12 12 12 12 12 12 12 11 11 11 12 13 13 13 14 14 14 14 15 15 16 16 16 17 17 18 18
12 12 11 11 11 11 11 12 12 11 11 11 12 12 12 12 12 12 12 12 13 13 13 13 13 13 13 13 13 13 14 15 15 15 15 15 16 16 16 16 17 18 18
13 13 12 12 12 12 12 12 12 12 11 12 12 12 12 12 12 12 13 14 14 14 14 14 14 14 13 13 13 13 14 14 14 14 15 15 15 15 16 16 16 17 18
14 14 14 13 13 13 12 13 13 12 12 12 12 12 12 12 13 13 14 14 14 14 14 14 14 13 12 12 13 14 14 14 14 14 15 15 15 15 16 16 17 17 17
16 15 15 15 15 14 14 13 13 12 12 12 12 12 12 13 13 13 13 14 13 13 14 14 14 13 13 12 13 13 13 14 14 14 14 14 14 14 15 15 16 16 17
17 17 17 16 16 15 14 13 13 13 12 12 12 12 13 13 13 13 13 13 13 13 13 14 14 13 13 13 13 13 13 14 14 15 14 14 14 14 15 15 15 16 17

GEFSMW_500_meanwind_264.txt.gz
Wind_Speed
15 16 15 15 14 14 14 13 13 13 12 10 10 11 11 11 10 10 10 10 10 10 11 11 11 11 11 11 12 12 12 13 14 14 15 15 16 16 16 16 16 16 17
14 15 15 14 14 14 13 12 12 12 11 10 10 10 9 10 10 10 10 9 9 10 10 11 10 10 10 11 11 11 12 13 13 14 14 15 16 16 16 16 16 17 17
15 15 14 14 13 13 12 12 13 13 12 11 10 9 9 9 9 9 9 9 9 10 10 10 10 10 11 11 12 12 13 13 14 14 15 15 16 17 17 16 16 16 17
15 15 15 15 13 12 12 12 12 12 11 11 9 8 9 9 9 9 9 10 10 10 10 10 11 12 12 12 13 13 13 13 14 14 14 14 15 15 16 16 16 16 17
15 15 15 15 13 12 11 12 12 12 12 11 10 10 10 9 9 9 9 9 8 9 9 10 11 12 13 14 14 14 14 14 14 14 14 14 14 15 16 16 17 17 17
14 15 14 14 12 11 11 12 11 11 11 11 11 11 10 10 9 8 8 8 9 9 10 11 12 12 12 13 14 14 14 14 14 14 14 14 15 15 15 16 16 16 17
14 14 13 12 11 10 11 11 10 10 10 11 11 11 10 9 8 8 9 9 9 10 10 11 12 12 12 13 13 13 13 13 13 14 14 14 14 14 14 15 15 16 16
13 13 12 11 10 10 10 9 9 9 9 10 10 9 9 9 9 9 9 10 10 10 11 12 12 12 12 12 12 12 12 12 12 13 13 13 13 13 14 14 15 16 16
13 12 11 11 11 10 9 9 8 9 9 9 10 10 8 8 8 9 10 10 10 11 11 12 12 12 12 12 12 12 12 12 12 12 12 12 13 13 14 14 13 14 14
11 10 10 10 10 9 8 8 8 8 9 9 8 7 8 8 8 9 10 10 11 11 11 12 12 13 13 12 12 12 12 12 12 12 12 13 13 14 14 14 14 14 13
10 10 9 9 9 8 8 7 7 8 8 8 8 8 8 8 8 9 10 10 11 11 11 11 12 13 13 12 12 12 13 12 12 12 13 13 14 14 14 15 15 15 15
9 9 8 7 8 8 7 7 7 7 7 7 7 7 8 8 8 9 10 11 11 11 11 11 12 12 12 12 12 12 13 13 12 12 13 13 14 14 15 15 15 15 15
8 8 7 7 7 7 7 6 6 6 6 6 6 8 8 8 9 10 10 10 11 11 11 11 11 11 11 11 11 11 12 12 12 13 13 13 14 14 15 16 16 15 16
7 6 6 6 6 6 7 6 6 6 6 7 7 8 8 9 10 10 10 10 10 11 11 12 12 11 11 10 10 10 11 11 11 12 12 13 14 14 15 15 15 15 15
7 7 7 7 6 6 6 6 5 5 6 7 7 8 9 10 10 10 10 11 10 11 11 12 11 11 11 11 10 10 10 10 10 10 11 12 13 14 14 14 14 14 14
6 7 8 7 7 6 6 7 6 6 7 7 8 9 10 10 10 10 11 11 11 11 11 11 11 11 11 11 10 10 10 9 10 10 11 11 13 14 14 13 13 13 14
7 8 8 7 7 7 7 7 8 9 9 9 9 10 10 11 11 11 11 11 11 12 11 11 11 12 12 11 11 11 10 10 10 11 11 12 13 12 12 12 12 13 14
8 9 9 8 8 8 8 9 10 10 10 10 11 11 11 11 11 11 11 11 12 12 11 11 11 11 11 11 11 11 11 10 10 11 11 11 11 11 11 11 12 13 14
10 10 10 9 9 10 10 10 10 10 10 11 12 12 12 12 12 12 12 12 12 11 11 11 11 11 11 11 11 11 11 11 12 12 11 11 10 11 11 11 13 14 14
10 10 10 10 11 11 11 11 11 11 11 11 12 12 12 12 12 12 11 11 11 11 11 11 11 11 11 11 11 12 11 12 12 12 12 11 11 11 11 12 13 14 15
11 11 11 11 11 11 11 11 11 12 12 12 12 11 11 11 11 11 11 11 11 11 10 10 11 11 11 11 11 12 12 13 13 12 12 11 11 11 12 12 13 13 14
13 13 13 13 12 12 12 12 13 13 13 13 13 12 12 12 11 11 11 11 11 10 10 10 11 10 11 11 11 11 12 12 12 12 11 11 11 11 11 12 12 13 14
14 15 15 14 14 14 14 13 13 13 13 14 13 12 12 12 11 11 11 11 10 10 9 10 10 10 10 11 10 10 11 11 11 11 10 10 11 11 12 12 13 13 14
15 16 16 15 15 14 14 14 14 14 14 14 13 13 13 13 12 11 11 10 10 9 9 10 10 10 11 11 11 11 11 10 10 11 11 11 11 12 12 13 13 14 14
17 16 16 16 15 15 15 15 15 15 15 14 14 13 13 13 12 11 10 10 10 9 10 10 11 11 12 11 11 11 11 11 11 11 11 11 11 12 13 13 13 14 14
17 18 17 16 15 16 16 16 16 15 15 14 14 13 12 13 12 11 10 10 10 10 10 11 11 12 12 12 11 11 11 11 11 11 12 12 12 13 13 14 14 15 15

GEFSMW_500_meanwind_270.txt.gz
Wind_Speed
15 15 14 14 14 14 14 13 13 12 12 12 11 11 11 11 10 11 12 12 12 12 12 12 12 12 13 13 13 13 14 14 14 14 15 15 16 16 16 16 16 16 16
15 14 14 13 13 13 13 12 12 12 12 11 11 11 11 11 10 10 10 11 11 12 12 13 13 13 13 13 13 13 13 14 14 14 15 15 15 16 16 16 16 16 16
15 14 14 14 13 12 12 11 12 12 12 11 11 11 11 10 10 10 10 11 10 10 12 12 13 13 13 13 13 14 14 14 14 15 15 15 16 16 16 16 17 17 17
16 15 14 13 12 11 11 11 11 11 11 10 10 9 10 9 8 9 10 11 11 11 11 12 12 12 13 13 13 14 14 15 15 15 15 15 15 16 16 17 17 18 18
15 14 13 12 11 11 10 11 10 9 9 8 9 9 9 9 9 9 10 10 11 11 12 12 12 12 13 13 13 14 14 15 15 15 15 15 15 16 16 16 17 17 18
12 12 12 12 12 11 10 9 9 8 9 8 8 8 8 9 10 11 11 11 11 11 12 11 12 12 12 12 13 14 14 15 15 15 15 15 15 15 16 16 16 16 17
11 11 11 11 11 10 10 9 9 9 9 9 9 9 9 9 10 10 11 11 11 10 10 10 11 12 12 13 13 13 14 14 14 14 14 15 15 15 15 15 16 16 16
11 10 9 9 10 10 9 8 8 8 9 10 10 11 10 10 10 9 10 10 11 10 10 10 11 11 12 13 13 13 13 13 13 14 14 15 15 15 15 15 15 16 16
10 9 9 9 9 9 8 7 8 8 9 9 10 10 11 10 10 10 10 11 10 10 10 10 11 12 12 12 12 12 13 13 14 13 14 14 15 15 15 15 15 15 15
9 9 9 9 9 9 8 8 8 8 8 9 10 10 10 10 10 10 10 10 10 10 10 11 12 12 12 12 12 12 12 13 13 13 13 14 14 14 13 14 15 15 15
10 10 10 9 9 8 8 8 8 8 8 8 9 9 10 10 11 11 11 11 11 11 11 11 12 13 13 12 12 13 12 12 12 12 12 11 12 13 13 14 15 15 15
9 9 9 9 9 9 8 8 8 8 8 9 9 9 9 10 10 10 11 11 11 11 12 12 13 14 14 13 13 13 12 13 12 12 12 12 12 13 14 14 15 15 15
8 8 8 8 8 8 7 7 7 8 8 8 8 9 10 10 10 10 11 11 11 12 12 13 13 13 13 13 13 12 12 12 12 11 12 12 12 12 13 14 15 15 15
9 8 8 8 8 8 8 8 8 9 8 8 8 9 9 9 10 10 11 11 11 12 12 13 13 12 12 12 12 11 11 11 11 11 11 12 12 12 13 14 14 14 15
9 9 8 8 8 8 8 9 9 9 9 10 10 10 10 10 10 11 11 12 12 12 12 12 12 13 13 13 12 11 10 11 11 11 12 12 12 12 13 13 13 14 14
10 10 9 9 9 9 10 10 10 10 10 10 10 10 10 10 10 11 11 11 11 11 12 12 12 12 13 12 11 11 10 11 11 11 12 12 12 13 13 13 13 14 14
12 11 11 10 10 10 10 11 10 10 10 10 10 10 10 10 11 11 11 11 11 11 10 11 11 12 12 12 12 12 11 11 12 12 12 12 13 12 12 12 13 14 14
14 13 13 12 12 12 11 11 11 11 11 11 11 11 11 11 11 10 10 10 10 9 9 9 10 11 11 12 12 11 12 12 12 13 13 13 13 13 13 13 14 14 14
14 14 13 13 13 13 12 12 12 11 11 11 11 11 11 12 12 11 11 11 10 9 9 9 10 11 11 11 11 11 11 12 12 12 12 12 12 13 13 14 14 14 15
15 15 15 14 13 13 13 13 12 12 12 12 12 11 11 12 11 11 11 11 10 10 10 10 11 11 12 11 11 11 11 10 11 11 12 12 12 12 13 13 14 14 14
16 16 15 15 14 14 14 14 13 13 13 13 13 13 12 12 12 11 11 11 11 11 11 11 11 12 11 11 11 11 11 11 11 12 12 12 12 12 12 13 13 14 14
16 16 16 15 15 15 15 14 14 14 14 13 14 13 13 13 12 12 12 11 11 11 11 11 12 11 11 11 11 12 12 13 13 13 13 13 13 13 13 13 14 14 14
16 16 17 16 16 16 16 16 15 15 15 14 14 14 14 14 13 12 12 12 12 12 12 11 11 12 12 11 12 12 13 14 14 14 14 14 14 14 14 14 14 15 15
16 17 18 17 17 17 18 17 16 16 16 15 15 15 14 14 14 14 13 13 12 11 11 10 11 11 11 12 12 13 13 14 14 14 14 15 15 15 14 15 15 15 15
19 19 19 19 18 18 18 19 18 18 17 16 16 15 15 14 14 13 13 13 12 12 11 11 11 11 12 12 13 13 14 14 14 15 15 15 15 15 15 15 15 15 15
21 20 20 19 19 19 19 19 19 19 18 17 16 16 15 15 14 14 14 13 13 13 12 12 12 12 12 13 14 14 15 15 14 15 15 15 15 16 16 15 15 15 15

GEFSMW_500_meanwind_276.txt.gz
Wind_Speed
15 15 14 14 14 13 13 12 11 11 11 11 10 10 11 11 11 12 12 12 12 12 13 12 12 11 11 11 12 13 13 13 13 13 14 14 15 15 15 15 15 14 14
16 15 15 14 13 12 12 12 11 11 11 11 11 11 11 11 11 11 12 12 11 11 12 13 12 12 12 12 13 13 14 13 13 14 15 15 15 16 16 16 16 15 15
15 15 15 14 13 12 12 11 11 12 12 11 11 11 11 12 12 11 11 12 12 11 12 12 13 14 14 14 14 14 14 14 14 15 15 16 16 16 16 16 16 16 16
14 14 14 13 12 12 11 12 12 12 11 11 11 11 11 11 11 12 12 11 12 12 12 12 13 15 15 15 15 14 15 15 15 15 16 16 16 16 16 16 16 16 17
15 14 13 12 12 12 12 11 12 12 11 11 11 11 12 12 11 12 12 12 12 13 13 14 14 15 15 15 15 14 15 15 15 15 15 16 15 16 16 16 16 16 17
13 13 13 12 12 11 11 10 11 12 12 12 12 12 13 13 12 12 12 12 13 14 13 15 15 15 15 15 15 15 15 15 16 16 16 16 16 16 16 16 16 16 16
12 12 12 12 12 11 11 11 10 11 11 12 12 12 13 12 11 12 12 13 13 12 13 14 15 15 15 15 15 14 14 14 15 15 15 15 16 16 16 16 16 16 16
12 12 11 11 11 11 11 11 11 11 11 12 12 12 12 11 11 12 12 13 13 12 12 13 14 14 14 15 14 14 13 13 13 14 14 14 14 15 15 16 16 15 15
11 11 10 11 10 10 10 11 11 10 11 12 12 13 12 11 11 11 12 13 13 13 13 14 14 13 12 13 13 13 13 13 13 13 14 14 14 14 14 15 15 15 15
11 10 11 11 11 11 10 10 10 10 11 11 12 13 12 11 11 11 12 13 13 14 14 13 13 12 12 12 12 12 13 14 13 13 13 13 13 13 14 15 15 15 15
11 11 10 11 11 11 11 11 11 11 11 11 11 11 12 12 12 12 12 12 13 13 12 12 12 12 12 12 12 12 13 13 12 12 13 13 14 14 14 14 15 15 15
11 11 12 11 11 11 11 11 11 11 12 11 12 12 12 12 12 12 12 11 11 12 12 13 12 13 13 12 12 12 12 12 12 12 13 13 14 14 14 14 14 14 14
11 11 11 11 11 11 12 12 12 12 12 11 12 12 11 11 12 12 12 11 11 12 12 13 13 13 13 12 12 12 11 12 12 12 13 13 14 14 14 14 13 13 14
12 12 11 11 11 12 12 12 12 12 12 12 12 11 12 12 13 12 11 12 12 12 12 13 13 12 12 12 12 12 12 12 12 12 13 13 13 14 14 13 13 13 14
12 12 11 11 12 12 12 12 12 12 12 11 11 11 12 12 12 11 11 11 11 11 12 12 12 12 12 12 11 12 12 13 13 12 13 13 13 14 13 12 13 13 14
12 12 12 12 12 12 12 13 13 12 11 11 11 11 11 11 12 11 11 11 11 11 11 11 11 12 12 12 12 12 13 14 13 13 13 13 13 12 13 13 14 14 15
13 13 14 13 13 12 13 13 13 12 11 11 11 11 11 11 11 11 11 11 11 11 11 11 11 11 11 12 12 13 13 13 14 13 13 12 12 13 13 13 13 14 14
14 14 14 14 13 13 13 13 13 12 12 12 11 12 11 11 11 11 12 12 12 12 11 11 11 11 12 12 13 13 13 13 13 12 12 13 13 14 14 14 14 14 14
15 15 14 15 14 14 13 13 13 13 13 12 12 12 12 12 12 12 11 11 11 11 11 12 12 12 12 12 12 13 12 12 11 12 12 13 13 14 14 14 14 14 15
16 16 15 15 15 15 14 14 13 13 13 13 13 13 13 12 12 12 12 12 12 12 12 12 13 12 12 13 13 12 11 11 11 11 12 12 12 13 14 14 14 14 14
18 18 17 16 16 16 16 15 15 14 14 15 14 14 13 13 13 13 13 13 13 13 13 13 12 13 13 13 13 12 12 11 11 12 12 12 12 12 13 14 14 14 14
18 19 19 18 17 17 17 16 16 16 16 15 15 15 14 14 14 13 13 13 13 14 14 13 13 13 13 13 13 12 12 12 12 12 12 13 13 13 14 14 14 14 14
18 19 19 18 18 18 17 17 17 17 16 16 16 15 15 15 15 14 14 14 14 15 14 14 14 14 14 13 13 13 12 12 12 12 12 13 14 15 15 15 15 14 14
19 20 19 19 19 18 17 17 17 18 18 18 17 16 16 16 16 15 15 15 15 15 15 14 14 14 14 14 13 13 13 13 13 13 13 14 14 14 15 15 15 14 14
21 20 20 20 20 19 19 18 18 19 19 19 19 19 18 17 16 16 16 16 16 16 16 15 15 15 14 14 13 13 13 14 14 14 15 15 15 15 15 16 15 14 15
22 22 20 20 20 20 20 19 19 19 20 20 20 19 19 18 18 18 17 17 17 16 16 16 17 16 16 15 14 14 15 15 15 15 16 16 16 16 17 16 16 15 15

GEFSMW_500_meanwind_282.txt.gz
Wind_Speed
15 16 16 16 16 16 15 15 14 13 13 12 12 13 12 12 13 12 12 13 13 13 13 13 14 14 13 13 13 12 13 13 13 14 14 14 15 15 15 14 14 13 13
17 18 16 15 15 15 14 14 13 13 13 12 12 12 13 13 12 12 13 13 13 13 13 13 14 13 14 14 14 14 14 14 13 14 14 15 15 15 15 15 14 13 13
18 18 16 15 15 14 13 13 12 12 12 12 12 12 13 13 13 13 13 14 14 14 14 14 13 13 14 13 14 14 14 14 14 14 15 15 15 15 14 15 14 14 14
18 17 15 14 14 14 13 13 12 12 12 12 11 12 13 13 13 13 13 14 14 14 15 14 14 13 13 14 14 14 14 15 15 15 15 15 15 14 14 14 15 15 15
17 17 16 15 14 14 13 13 12 12 12 12 12 12 12 13 13 13 13 13 14 14 14 14 14 13 13 13 14 14 14 14 14 15 15 14 14 13 13 14 14 15 15
16 16 16 15 15 14 13 13 12 11 12 12 12 12 12 13 13 13 14 14 14 14 13 14 14 14 13 13 14 14 14 14 14 14 14 14 14 13 13 14 15 15 15
15 15 14 13 14 13 12 12 12 11 12 12 12 12 12 13 13 14 14 15 15 14 14 14 14 14 14 14 14 14 14 14 14 14 14 14 14 14 13 14 15 16 15
14 14 14 13 13 13 12 12 12 12 12 12 12 12 13 13 13 14 14 14 14 14 14 14 14 14 13 13 13 13 14 14 14 14 14 13 14 15 14 14 15 15 15
14 14 14 13 13 12 12 12 12 12 12 12 12 12 13 13 14 14 14 14 15 15 15 14 13 13 13 14 14 15 14 14 13 13 13 14 14 15 15 15 15 15 15
13 14 14 14 14 12 12 12 12 13 13 13 12 12 12 13 14 14 15 14 14 14 14 14 14 14 14 15 14 14 14 14 13 13 14 14 15 15 15 15 15 15 15
13 13 13 14 13 13 12 12 12 13 13 13 12 12 13 13 14 14 14 14 13 14 14 14 14 14 14 14 13 13 13 13 13 14 14 14 15 16 16 16 16 15 15
13 13 13 13 13 13 12 12 12 12 13 13 13 13 13 13 13 13 13 13 13 13 13 13 13 13 13 13 13 13 14 14 14 14 14 15 15 15 16 16 16 15 15
15 13 13 12 13 13 12 12 12 12 13 13 13 13 14 13 13 13 14 13 14 13 13 13 13 13 13 13 14 14 14 14 14 14 15 15 15 15 16 16 16 16 16
15 15 13 12 13 13 12 12 12 13 14 15 15 14 14 14 14 14 14 13 14 13 13 12 13 14 14 13 13 14 13 13 13 14 14 15 15 15 16 16 16 16 16
15 14 13 13 13 13 13 13 13 14 15 15 16 15 15 14 14 14 14 14 13 13 13 12 13 14 14 13 14 13 13 13 13 14 14 14 14 14 15 16 16 15 15
16 16 16 16 15 15 15 15 14 14 15 15 15 15 15 14 14 14 14 13 13 14 14 13 13 14 14 14 14 14 14 14 14 14 15 14 14 14 15 15 14 13 13
18 18 17 17 16 16 15 15 15 15 15 15 14 15 14 14 14 14 14 14 14 14 13 13 13 13 14 13 13 13 13 14 14 14 14 15 15 15 15 14 13 13 12
20 19 19 19 18 17 17 16 15 15 16 15 15 15 14 14 15 14 13 14 14 13 13 14 14 14 13 13 13 13 13 13 14 14 14 15 15 15 14 14 14 14 14
21 20 19 19 18 17 17 17 16 16 17 16 16 15 16 16 16 14 13 13 14 14 14 14 14 13 13 13 13 12 13 14 14 15 15 15 15 15 15 15 14 14 15
21 20 19 18 18 17 17 17 17 17 17 17 17 17 17 16 15 14 14 15 15 14 14 13 13 13 13 13 13 13 13 14 15 15 15 15 15 15 15 15 15 15 16
21 20 20 19 18 18 18 18 18 18 18 17 16 17 17 17 16 15 15 15 15 14 14 14 14 14 14 14 13 14 14 14 15 15 15 15 15 15 16 16 16 16 15
21 20 20 19 19 19 19 19 18 18 19 18 18 17 17 17 16 16 16 16 16 16 15 15 15 15 15 14 14 14 15 15 16 16 15 15 15 15 15 15 15 16 16
22 21 21 20 20 20 20 20 20 19 19 18 18 17 17 17 17 17 17 17 17 17 17 16 16 15 15 15 15 16 16 16 16 16 16 15 15 15 15 15 16 16 16
23 23 22 22 21 21 22 22 21 21 20 18 18 18 18 18 18 18 18 19 19 18 18 17 16 16 16 16 16 17 17 17 17 17 16 16 16 16 16 16 17 17 17
23 23 24 24 23 22 22 22 22 21 21 20 20 19 19 19 19 19 18 18 18 18 17 17 17 16 16 17 18 18 18 18 18 18 18 18 18 18 17 17 17 17 18
24 24 24 24 23 23 22 22 22 21 21 21 21 21 21 21 20 20 19 19 19 18 17 17 17 17 17 17 18 18 19 19 19 19 19 19 19 19 19 18 18 18 18

GEFSMW_500_meanwind_288.txt.gz
Wind_Speed
15 14 14 14 13 12 12 12 11 11 11 11 11 11 11 10 10 10 10 10 11 10 10 10 10 11 10 10 10 10 10 11 11 12 12 12 13 13 14 14 13 13 14
15 16 15 15 13 12 12 11 11 10 10 11 11 11 11 11 11 10 10 11 11 11 10 10 10 11 12 12 11 11 12 12 13 13 13 12 12 13 13 13 14 14 14
14 14 13 13 12 13 12 12 11 10 10 11 11 11 11 11 11 11 10 11 11 11 11 11 11 11 12 12 12 12 12 13 14 14 13 12 12 11 12 12 13 13 13
13 13 13 12 12 13 13 12 11 11 10 10 10 9 10 10 10 11 10 10 11 11 11 12 11 12 12 13 13 12 12 12 13 14 13 12 12 11 12 12 13 13 13
14 14 13 12 12 12 13 12 12 11 11 10 10 10 10 10 10 10 10 11 11 11 11 12 12 12 12 13 13 12 12 12 12 13 12 12 12 11 11 12 13 13 13
15 15 14 13 12 12 13 13 13 12 11 10 10 10 10 10 10 10 11 11 11 11 11 12 12 12 12 12 12 12 12 11 11 12 12 11 11 12 12 12 12 13 14
14 14 13 12 11 12 12 12 12 12 11 11 11 10 10 11 10 11 11 11 11 12 12 12 12 12 12 11 11 11 11 11 12 11 11 11 11 12 12 12 12 13 13
13 13 13 11 10 11 12 12 11 11 11 11 11 11 11 11 10 10 11 12 12 12 13 13 12 12 11 11 11 11 10 11 11 12 11 11 12 12 12 12 13 13 13
12 13 12 11 10 10 10 11 11 10 10 10 10 11 11 11 11 11 12 12 11 12 12 12 11 11 11 11 11 11 11 11 12 12 12 12 13 13 13 13 14 14 14
12 13 12 11 10 10 11 11 10 10 10 11 11 11 12 12 12 12 12 11 11 11 11 10 10 10 11 11 11 11 12 11 12 12 12 12 13 13 13 14 14 14 13
12 12 12 12 10 11 11 11 10 10 10 10 11 11 11 11 11 12 12 11 10 10 10 11 10 11 11 12 12 12 11 12 12 12 13 13 13 13 13 13 13 13 13
13 13 12 12 12 11 11 11 10 10 10 10 10 11 11 11 11 11 11 11 11 11 11 11 11 12 12 12 12 12 12 12 12 13 13 13 13 13 13 14 13 13 13
13 13 13 14 13 12 11 11 11 11 10 10 10 10 11 11 11 11 11 11 11 12 12 12 12 12 12 12 13 13 13 13 13 14 14 14 14 14 14 14 14 14 14
14 13 13 13 12 11 11 10 11 11 11 10 11 11 11 12 11 11 11 12 12 13 12 13 13 13 12 12 13 13 13 13 13 14 14 14 14 14 14 14 14 14 14
14 14 13 11 11 11 11 11 11 11 11 11 11 11 12 11 11 11 12 13 13 13 13 13 14 13 13 13 14 14 13 13 13 14 14 14 14 14 14 14 14 15 14
15 14 13 12 11 11 12 12 12 12 12 12 12 12 12 11 11 12 12 13 14 14 14 15 15 14 14 14 14 13 12 13 13 13 14 14 15 15 15 15 15 15 15
17 15 14 13 13 12 12 13 14 13 13 13 12 12 12 12 12 13 13 14 15 15 15 15 15 15 14 14 14 13 13 13 13 14 14 14 14 15 15 15 16 15 15
18 17 15 14 14 14 14 14 14 14 14 14 14 13 13 14 14 14 14 14 15 15 15 15 14 14 13 13 13 13 14 14 14 14 14 14 15 15 15 15 14 15 15
18 18 17 16 16 16 15 16 16 16 15 15 15 15 15 15 15 15 15 15 15 15 15 15 14 14 13 13 13 13 14 14 14 14 14 14 15 15 14 15 15 15 15
19 19 19 18 17 17 17 17 18 17 16 16 16 16 16 16 16 16 16 17 16 15 15 15 15 14 14 14 14 14 14 14 14 14 14 15 15 15 15 15 15 15 16
21 21 21 19 19 19 19 19 18 17 17 17 17 17 16 16 16 16 17 17 17 16 16 15 15 15 14 14 14 14 14 14 14 14 15 15 15 15 16 16 16 16 16
23 23 22 21 21 21 21 21 20 19 18 18 18 18 18 18 17 17 17 17 17 17 16 16 15 15 15 15 15 15 14 14 14 14 15 15 15 15 16 16 16 17 17
24 24 24 23 23 23 22 22 21 20 19 19 18 18 18 18 18 18 18 17 17 18 17 16 16 16 16 16 15 15 15 15 15 15 15 15 15 15 15 16 16 17 17
25 24 23 23 22 22 22 22 21 21 20 20 19 20 19 19 18 18 18 18 18 18 18 17 17 17 17 16 16 15 15 15 15 16 16 16 16 16 16 16 16 17 17
25 24 23 22 22 22 22 22 22 21 21 21 20 20 20 20 19 19 18 18 18 18 18 19 18 17 18 17 17 16 16 17 17 17 17 17 17 17 17 18 18 17 18
25 25 25 24 24 24 23 23 23 22 22 22 22 21 21 20 19 19 19 19 19 19 19 19 19 18 18 18 17 17 17 18 18 18 18 18 19 19 18 18 18 18 18

GEFSMW_500_meanwind_294.txt.gz
Wind_Speed
13 13 12 11 12 11 11 11 10 10 10 10 10 11 11 11 11 11 11 10 11 11 11 11 11 11 10 10 10 11 11 11 12 12 12 13 13 13 13 13 13 13 13
13 12 11 11 11 12 11 11 11 11 10 11 11 11 11 11 11 11 11 11 11 11 11 11 11 11 11 11 11 12 12 12 13 13 14 14 14 13 13 13 13 13 13
11 11 11 11 11 11 11 11 11 12 12 12 12 11 11 11 11 10 11 11 11 11 11 11 11 11 11 11 12 13 12 12 13 14 14 14 13 13 13 13 13 13 12
11 12 12 11 11 11 11 11 12 12 12 13 12 12 12 11 11 11 11 11 11 11 11 11 11 11 11 12 12 13 13 13 14 14 14 14 13 14 13 13 13 12 12
12 12 12 12 12 11 11 12 11 11 12 12 12 12 12 11 11 11 12 12 12 11 11 12 12 12 12 12 12 13 13 13 14 14 14 14 14 14 14 14 14 14 13
12 12 12 12 12 12 11 12 12 11 11 11 12 12 11 12 12 12 12 12 12 12 12 12 13 13 13 13 13 13 13 12 13 14 14 14 14 13 13 14 14 15 15
13 12 12 12 12 12 12 11 11 11 11 11 11 12 12 12 12 12 12 12 13 13 13 13 13 14 14 14 14 13 13 13 14 14 14 14 13 13 14 14 14 14 14
13 12 12 12 12 13 13 12 11 11 11 12 12 13 13 13 13 13 13 13 13 13 13 13 13 13 13 14 13 13 14 14 14 14 14 13 13 13 14 14 14 14 14
12 12 12 12 12 12 13 12 12 12 12 13 13 13 13 13 13 13 13 13 14 13 13 14 13 12 13 13 14 14 15 15 14 13 13 13 14 14 14 14 14 14 14
13 12 13 13 13 13 14 14 14 14 14 14 14 14 13 14 14 14 14 14 14 14 14 14 13 12 13 14 14 14 14 14 13 14 14 14 15 15 15 15 15 15 15
14 14 14 14 14 14 14 14 15 15 15 15 15 15 14 15 15 14 14 14 14 14 14 14 13 13 12 13 13 14 14 14 14 14 15 15 15 15 15 15 15 15 15
15 14 14 14 14 14 14 14 15 15 16 17 16 15 15 15 15 15 14 14 14 14 13 13 13 13 13 13 14 14 14 15 15 14 15 15 15 15 15 15 15 15 15
16 15 14 14 14 14 15 15 16 16 16 16 16 16 17 16 16 15 15 14 14 14 14 14 13 13 14 14 15 15 15 15 15 15 15 15 15 15 15 16 16 15 15
16 15 15 15 14 14 14 14 15 15 15 15 16 16 16 16 15 15 14 15 15 15 15 15 15 14 15 15 16 16 16 15 15 15 15 15 15 15 16 17 17 16 15
17 16 16 16 15 14 14 15 15 15 15 15 15 15 15 15 15 15 15 16 16 16 16 17 17 16 16 16 17 17 17 16 15 15 16 16 16 16 16 17 18 17 17
19 18 17 17 16 15 15 16 15 15 15 16 16 16 16 16 16 16 16 16 16 17 17 17 17 17 17 18 18 18 17 17 16 16 16 16 16 16 17 18 18 18 18
20 19 18 18 18 17 16 17 16 16 16 16 17 17 17 17 17 16 16 16 16 17 17 17 17 18 18 18 17 17 16 16 17 17 16 16 16 17 18 18 18 18 19
21 20 20 19 19 18 17 18 17 17 17 17 17 16 17 18 18 17 17 17 17 17 17 17 17 17 17 17 17 17 17 17 17 17 17 17 17 18 19 19 18 18 18
20 20 19 18 18 18 18 18 18 18 17 17 17 17 18 19 19 19 18 18 18 18 18 18 17 17 18 18 18 18 18 18 17 17 17 17 18 18 18 18 18 18 18
21 20 20 20 20 20 19 19 19 19 18 18 18 18 18 18 20 20 19 19 19 19 19 19 18 18 18 19 19 19 19 18 18 19 19 19 18 18 18 18 18 19 19
22 22 22 22 22 22 22 21 21 21 20 20 19 19 19 19 20 20 20 20 20 19 19 19 19 19 19 19 19 19 19 19 19 20 20 20 20 19 19 19 19 19 19
24 24 24 23 23 23 23 23 23 22 22 22 21 21 21 21 21 21 20 20 20 19 19 19 20 20 19 19 20 20 20 20 20 21 21 20 20 19 19 19 19 19 20
25 26 26 26 25 25 25 25 25 25 24 23 22 22 22 22 22 22 21 21 21 20 20 20 20 20 20 19 19 20 20 20 20 21 22 21 21 20 20 20 20 20 20
26 26 26 26 26 25 26 27 27 27 26 25 24 24 23 22 22 22 22 22 21 21 22 21 21 20 20 19 20 20 19 19 20 21 21 21 21 20 20 20 20 20 20
26 26 25 26 27 26 26 26 27 27 27 26 26 25 24 23 24 23 23 22 22 22 22 22 22 21 20 20 20 19 19 19 20 20 20 20 20 20 20 20 20 20 21
26 26 26 25 25 26 26 26 25 27 27 26 25 25 25 24 24 24 24 23 23 23 23 23 23 22 22 21 21 21 20 20 19 19 19 19 20 21 20 20 20 20 20

GEFSMW_500_meanwind_300.txt.gz
Wind_Speed
13 13 13 13 13 12 13 12 12 12 12 11 11 11 12 12 12 12 12 13 12 11 11 11 10 10 10 10 10 11 10 9 9 9 9 10 11 12 12 12 12 12 12
13 13 13 12 13 13 12 12 12 13 12 12 11 11 11 11 12 11 12 12 12 12 11 11 11 10 9 9 9 10 11 11 11 10 10 11 12 12 12 12 13 12 12
13 13 13 13 13 13 13 12 13 13 12 13 12 12 11 11 11 12 12 13 13 12 11 11 11 10 10 9 9 10 10 10 11 11 11 11 12 12 12 12 12 12 13
13 13 13 13 13 13 13 12 12 12 13 13 13 13 13 12 12 12 13 13 13 12 12 12 11 11 11 10 10 10 10 10 11 11 11 11 11 11 12 12 13 13 13
12 13 13 13 13 13 13 12 12 12 12 12 12 13 13 12 12 12 12 13 13 12 12 12 11 12 12 12 11 11 10 11 11 12 12 12 12 12 12 13 14 14 14
12 12 12 13 13 14 14 13 12 12 12 12 12 12 12 12 12 12 12 13 12 12 12 12 12 12 13 13 12 12 12 12 12 12 12 12 12 12 12 13 14 13 14
12 11 12 12 13 13 14 13 13 13 12 12 12 12 12 13 13 13 13 13 13 12 13 13 13 13 13 13 13 12 12 13 13 13 13 13 13 13 13 13 13 14 14
11 11 12 12 12 13 13 14 14 14 13 13 13 12 13 14 14 13 13 14 14 14 14 14 13 14 14 13 13 13 13 13 14 14 14 14 14 13 14 14 14 14 15
12 13 13 13 13 13 14 15 15 15 15 15 15 15 14 14 14 13 13 13 14 14 14 15 14 14 14 14 13 13 14 14 15 14 14 14 14 14 14 15 15 15 15
13 13 13 14 14 14 15 15 16 17 17 17 16 16 15 15 14 14 14 14 14 15 15 15 15 14 14 14 14 14 13 14 14 15 14 14 14 15 15 15 15 15 14
14 14 14 15 15 15 15 16 17 18 18 18 17 17 16 16 15 15 15 15 15 15 15 15 15 15 14 14 13 13 13 14 14 14 14 14 14 15 15 15 14 15 15
15 15 15 16 16 16 16 17 17 18 19 19 18 18 17 17 16 16 16 16 16 15 15 15 15 15 14 14 14 14 14 14 14 15 15 14 15 15 15 14 15 15 15
17 17 17 17 18 18 17 17 18 18 19 19 19 19 18 18 18 17 17 17 16 16 16 16 15 15 15 15 15 15 15 15 15 15 15 15 15 15 15 15 15 16 16
20 19 18 18 18 18 19 18 19 19 19 20 20 20 20 19 19 18 18 18 18 18 18 17 16 16 16 16 16 16 16 16 16 16 16 16 16 15 15 15 16 16 16
20 20 19 19 18 18 19 19 19 20 20 20 20 21 20 20 20 20 20 19 19 19 19 18 18 17 17 17 17 17 17 16 16 16 16 16 16 16 16 16 17 17 17
20 20 19 19 19 19 19 19 19 20 20 20 20 21 20 21 21 21 21 21 21 20 20 20 19 18 18 18 18 18 17 17 17 17 17 16 16 16 17 17 17 17 17
20 20 20 19 19 18 19 20 20 20 21 21 21 21 21 21 21 22 22 21 21 21 21 20 20 19 19 19 19 19 18 18 18 18 17 17 17 17 17 18 18 18 18
20 20 20 20 20 20 20 20 21 21 21 22 22 21 22 22 21 21 21 22 22 22 22 21 21 20 20 20 19 19 19 19 19 19 18 18 17 17 17 18 18 18 19
21 21 21 22 21 21 21 21 22 22 21 21 22 23 22 21 21 21 21 22 22 22 22 22 21 21 21 21 20 20 20 19 20 20 19 19 19 18 18 18 18 19 19
22 22 22 22 22 22 22 23 23 22 21 21 22 23 23 22 21 21 21 21 21 21 21 21 22 22 21 21 20 20 20 20 20 20 20 20 20 19 19 19 19 20 20
23 23 23 23 22 23 22 23 23 22 22 22 22 22 22 23 23 22 22 22 22 21 21 21 21 21 21 21 20 20 21 21 21 21 21 21 20 20 20 20 20 20 21
24 24 24 24 23 23 23 23 24 24 23 23 23 23 23 23 23 23 23 22 22 22 21 21 21 21 21 21 21 21 22 22 22 22 22 21 21 21 20 20 21 21 21
25 25 24 24 24 24 24 23 24 24 24 24 23 23 24 24 23 23 23 22 22 22 22 22 21 21 21 21 21 22 22 22 22 22 22 21 21 21 21 21 21 21 21
26 26 26 25 25 24 24 23 24 24 24 24 24 24 24 24 24 23 24 24 24 24 23 24 23 22 22 22 22 22 22 22 22 23 23 23 22 22 21 21 21 21 21
26 26 26 26 26 25 25 25 25 25 25 25 26 25 25 25 25 25 26 25 25 25 25 24 24 24 23 24 23 23 23 23 23 23 23 23 23 22 21 21 21 21 21
27 26 25 26 25 25 25 25 25 25 25 25 26 27 26 26 26 27 27 27 27 27 26 26 25 25 25 25 25 25 24 23 23 22 22 22 22 22 22 21 21 21 21

GEFSMW_500_meanwind_306.txt.gz
Wind_Speed
15 16 16 17 16 15 15 15 15 15 15 15 15 15 15 15 15 15 14 14 13 13 12 13 12 12 11 10 10 10 9 9 9 9 9 9 9 9 10 9 10 11 10
15 16 17 16 15 14 15 16 16 16 16 16 16 16 15 15 15 15 14 13 13 13 12 13 12 11 11 11 11 11 10 9 9 9 10 10 9 9 10 10 10 11 11
15 16 16 16 15 15 15 15 15 15 15 15 15 15 15 14 15 14 13 12 12 12 12 12 12 12 12 12 12 11 11 11 10 10 10 10 10 10 10 11 10 10 11
14 15 15 15 15 14 15 15 14 15 15 15 14 14 14 14 13 13 12 12 11 11 12 12 12 12 12 12 11 11 11 11 10 11 11 11 11 11 11 11 11 11 11
13 14 15 15 14 13 13 13 14 14 13 13 14 13 13 13 13 13 12 12 12 11 11 11 12 12 11 11 11 11 11 11 11 11 12 12 11 11 11 11 11 11 12
14 13 14 15 14 13 13 13 13 13 14 14 14 14 13 13 13 12 12 12 13 12 12 12 12 11 11 11 11 11 12 12 12 12 12 12 12 12 12 12 11 11 12
14 14 14 14 14 13 13 12 13 13 13 12 13 13 13 13 12 12 12 12 12 12 12 12 12 11 11 11 12 12 12 12 12 12 12 12 13 13 13 13 13 13 13
14 14 15 15 14 13 13 13 12 12 12 12 12 12 12 12 12 13 12 12 12 12 13 12 12 11 11 12 12 12 13 13 13 13 13 13 13 14 14 14 14 14 14
15 15 15 15 15 15 15 14 14 14 14 13 13 13 13 14 13 13 13 13 13 13 13 13 12 12 12 12 12 13 13 14 14 14 14 14 14 14 14 15 15 14 13
18 17 16 16 16 16 16 16 16 15 15 15 15 14 14 14 14 14 14 14 14 14 14 14 14 13 13 13 14 14 14 14 14 13 14 14 14 14 15 15 15 14 14
19 18 17 17 17 17 17 18 18 17 17 17 16 16 16 16 16 15 14 14 15 15 15 14 14 14 14 14 14 14 15 14 14 14 14 14 14 14 14 15 15 15 15
19 19 19 18 18 17 17 18 18 18 18 18 17 17 18 18 17 17 17 16 16 16 16 15 15 15 15 15 15 15 15 14 14 14 14 14 14 14 15 15 15 15 15
20 21 21 20 19 19 19 18 18 18 18 19 18 18 18 18 18 18 17 17 17 17 17 17 16 16 16 15 15 15 15 15 15 14 14 14 13 14 15 15 15 15 16
22 21 22 21 20 19 20 19 19 19 19 19 19 19 19 19 18 18 18 18 17 17 18 18 18 17 17 16 16 16 16 15 15 15 14 14 14 15 15 16 16 16 16
23 23 23 23 22 21 20 20 20 20 20 19 20 19 19 20 19 19 19 19 19 18 18 19 19 18 18 17 16 16 16 16 16 15 15 15 15 16 15 16 16 16 16
23 24 24 23 22 22 21 21 20 20 21 21 20 20 19 20 20 20 20 20 20 20 20 20 20 20 19 18 18 17 17 17 16 16 16 16 17 17 17 17 17 17 17
25 25 24 24 23 22 21 21 21 20 21 21 21 21 21 21 21 21 22 21 21 21 22 22 21 21 21 20 19 19 19 18 18 17 17 17 17 17 17 18 18 18 18
27 25 25 25 24 23 23 22 22 22 22 22 21 21 22 22 22 23 23 22 22 22 22 22 22 22 21 21 21 21 20 20 19 18 18 18 18 18 18 18 18 18 19
27 26 25 24 24 24 23 23 23 23 23 23 23 23 23 23 23 23 23 23 22 23 24 23 23 23 23 22 22 22 22 21 21 21 20 20 20 19 20 19 19 19 19
27 26 25 24 24 24 24 24 24 24 24 24 23 24 24 25 24 24 24 24 23 23 23 24 23 23 23 23 23 23 22 22 22 22 22 22 22 21 21 21 20 20 20
28 27 26 25 25 25 25 25 25 24 24 24 25 25 25 26 26 26 26 25 24 24 24 23 23 23 24 24 23 23 23 22 22 22 23 23 22 22 22 22 21 22 21
29 28 28 27 26 25 25 25 25 25 25 25 26 26 26 26 27 28 27 27 26 25 24 24 23 24 24 24 24 24 24 23 23 23 23 23 22 22 23 23 23 23 23
29 29 29 28 27 26 25 25 26 26 26 26 27 27 27 27 28 28 27 26 26 26 26 24 24 24 24 24 25 24 23 23 24 24 24 23 23 23 23 24 24 23 23
29 29 29 29 28 27 26 26 25 26 25 26 27 27 28 27 27 28 27 26 27 27 27 26 26 26 26 25 25 24 24 24 25 25 26 26 25 25 25 24 24 23 23
30 29 30 29 29 28 28 27 26 26 27 26 26 27 27 28 28 28 28 27 27 27 27 27 27 27 27 26 26 25 26 25 25 26 27 27 26 26 25 25 24 24 23
30 30 30 30 30 30 29 28 27 27 26 26 25 26 26 27 28 28 27 26 26 27 27 27 27 27 27 27 26 26 27 26 26 26 27 27 27 26 26 26 25 25 25